Provisional Data: Susquehanna River near Binghamton, NY


Please select a monitoring station.
Please select start date.
Please select start date.

Toggle Unit: C/F Toggle Unit: C/F
Sample Time Temperature (C) Temperature (F) Specific Conductivity (mS/cm) pH   Turbidity (NTU+) DO (mg/L)
12/11/2021 12:00:00 AM 7.8485 6.6597
12/11/2021 12:15:00 AM 7.866 6.6271
12/11/2021 12:30:00 AM 7.8355 6.6373
12/11/2021 12:45:00 AM 7.6098 6.738
12/11/2021 1:00:00 AM 7.4262 6.8949
12/11/2021 1:15:00 AM 7.3896 6.8596
12/11/2021 1:30:00 AM 7.3781 6.849
12/11/2021 1:45:00 AM 7.3759 6.8339
12/11/2021 2:00:00 AM 7.3764 7.0287
12/11/2021 2:15:00 AM 7.3778 7.0733
12/11/2021 2:30:00 AM 7.3803 7.0301
12/11/2021 2:45:00 AM 7.378 6.9998
12/11/2021 3:00:00 AM 7.3775 6.996
12/11/2021 3:15:00 AM 7.377 6.9626
12/11/2021 3:30:00 AM 7.3771 6.9301
12/11/2021 3:45:00 AM 7.3768 6.8988
12/11/2021 4:00:00 AM 7.3739 6.9151
12/11/2021 4:15:00 AM 7.3722 6.897
12/11/2021 4:30:00 AM 7.372 6.8304
12/11/2021 4:45:00 AM 7.3716 6.8551
12/11/2021 5:00:00 AM 7.3684 6.9622
12/11/2021 5:15:00 AM 7.3673 6.9571
12/11/2021 5:30:00 AM 7.3673 6.939
12/11/2021 5:45:00 AM 7.3696 6.9
12/11/2021 6:00:00 AM 7.4023 6.9643
12/11/2021 6:15:00 AM 7.4621 7.1655
12/11/2021 6:30:00 AM 7.5346 7.1937
12/11/2021 6:45:00 AM 7.6155 7.0307
12/11/2021 7:00:00 AM 7.6776 7.0578
12/11/2021 7:15:00 AM 7.6943 7.4731
12/11/2021 7:30:00 AM 7.7059 7.8437
12/11/2021 7:45:00 AM 7.758 7.8646
12/11/2021 8:00:00 AM 7.7426 8.2778
12/11/2021 8:15:00 AM 7.6685 7.5325
12/11/2021 8:30:00 AM 7.4421 7.2585
12/11/2021 8:45:00 AM 7.3934 7.3
12/11/2021 9:00:00 AM 7.3531 7.6798
12/11/2021 9:15:00 AM 7.3461 8.0919
12/11/2021 9:30:00 AM 7.343 8.0988
12/11/2021 9:45:00 AM 7.3394 8.0078
12/11/2021 10:00:00 AM 7.3379 8.0521
12/11/2021 10:15:00 AM 7.3337 8.264
12/11/2021 10:30:00 AM 7.3312 11.7911
12/11/2021 10:45:00 AM 7.3283 26.0409
12/11/2021 11:00:00 AM 7.328 69.4391
12/11/2021 11:15:00 AM 7.3241 81.1149
12/11/2021 11:30:00 AM 7.3225 86.616
12/11/2021 11:45:00 AM 7.3192 89
12/11/2021 12:00:00 PM 7.3176 81.2191
12/11/2021 12:15:00 PM 7.3143 68.8436
12/11/2021 12:30:00 PM 7.3104 61.629
12/11/2021 12:45:00 PM 7.3094 58.6694
12/11/2021 1:00:00 PM 7.3046 55.0761
12/11/2021 1:15:00 PM 7.3036 55.1266
12/11/2021 1:30:00 PM 7.3005 21.7563
12/11/2021 1:45:00 PM 7.3091 18.213
12/11/2021 2:00:00 PM 7.349 17.0898
12/11/2021 2:15:00 PM 7.4174 15.869
12/11/2021 2:30:00 PM 7.5154 15.3561
12/11/2021 2:45:00 PM 7.6161 15.891
12/11/2021 3:00:00 PM 7.7081 64.1158
12/11/2021 3:15:00 PM 7.6952 61.8834
12/11/2021 3:30:00 PM 7.6539 60.8692
12/11/2021 3:45:00 PM 7.6302 62.1777
12/11/2021 4:00:00 PM 7.662 64.283
12/11/2021 4:15:00 PM 7.6849 47.3599
12/11/2021 4:30:00 PM 7.6521 19.343
12/11/2021 4:45:00 PM 7.6619 17.6628
12/11/2021 5:00:00 PM 7.6596 17.9465
12/11/2021 5:15:00 PM 7.7235 18.1399
12/11/2021 5:30:00 PM 7.7622 17.3551
12/11/2021 5:45:00 PM 7.791 16.4
12/11/2021 6:00:00 PM 7.7547 14.6451
12/11/2021 6:15:00 PM 7.7715 16.1638
12/11/2021 6:30:00 PM 7.7858 30.8452
12/11/2021 6:45:00 PM 7.8178 78.8365
12/11/2021 7:00:00 PM 7.8123 85.2468
12/11/2021 7:15:00 PM 7.807 77.6025
12/11/2021 7:30:00 PM 7.821 71.6653
12/11/2021 7:45:00 PM 7.8463 76.923
12/11/2021 8:00:00 PM 7.831 79.1273
12/11/2021 8:15:00 PM 7.8208 74.0871
12/11/2021 8:30:00 PM 7.8225 32.4641
12/11/2021 8:45:00 PM 7.8316 20.2
12/11/2021 9:00:00 PM 7.9576 20.4658
12/11/2021 9:15:00 PM 7.6556 19.5406
12/11/2021 9:30:00 PM 7.4587 20.004
12/11/2021 9:45:00 PM 7.4937 19.9539
12/11/2021 10:00:00 PM 7.4179 20.6042
12/11/2021 10:15:00 PM 7.2913 20.3311
12/11/2021 10:30:00 PM 7.2614 21.0177
12/11/2021 10:45:00 PM 7.2583 20.1915
12/11/2021 11:00:00 PM 7.2605 20.2077
12/11/2021 11:15:00 PM 7.2632 19.0985
12/11/2021 11:30:00 PM 7.2667 18.6753
12/11/2021 11:45:00 PM 7.2702 18.5
12/12/2021 12:00:00 AM 7.2737 18.7143
12/12/2021 12:15:00 AM 7.2754 18.2307
12/12/2021 12:30:00 AM 7.277 17.9038
12/12/2021 12:45:00 AM 7.2787 17.152
12/12/2021 1:00:00 AM 7.2852 16.7569
12/12/2021 1:15:00 AM 7.2992 16.1412
12/12/2021 1:30:00 AM 7.3151 15.4198
12/12/2021 1:45:00 AM 7.3273 14.9774
12/12/2021 2:00:00 AM 7.3351 14.5895
12/12/2021 2:15:00 AM 7.345 13.9543
12/12/2021 2:30:00 AM 7.3442 13.4163
12/12/2021 2:45:00 AM 7.3346 13.2999
12/12/2021 3:00:00 AM 7.3444 12.6709
12/12/2021 3:15:00 AM 7.3406 12.658
12/12/2021 3:30:00 AM 7.3364 12.7727
12/12/2021 3:45:00 AM 7.346 12.6336
12/12/2021 4:00:00 AM 7.3494 11.8762
12/12/2021 4:15:00 AM 7.3539 11.4242
12/12/2021 4:30:00 AM 7.3421 11.1263
12/12/2021 4:45:00 AM 7.334 11.3296
12/12/2021 5:00:00 AM 7.3374 10.906
12/12/2021 5:15:00 AM 7.3268 10.6442
12/12/2021 5:30:00 AM 7.3094 10.5075
12/12/2021 5:45:00 AM 7.3108 10.4
12/12/2021 6:00:00 AM 7.3089 10.2601
12/12/2021 6:15:00 AM 7.3087 10.232
12/12/2021 6:30:00 AM 7.311 10.2312
12/12/2021 6:45:00 AM 7.314 10.1634
12/12/2021 7:00:00 AM 7.3144 10.0649
12/12/2021 7:15:00 AM 7.3134 10.0836
12/12/2021 7:30:00 AM 7.3139 10.0261
12/12/2021 7:45:00 AM 7.3137 9.9153
12/12/2021 8:00:00 AM 7.3096 9.8399
12/12/2021 8:15:00 AM 7.3091 9.8338
12/12/2021 8:30:00 AM 7.3067 9.8546
12/12/2021 8:45:00 AM 7.301 9.9
12/12/2021 9:00:00 AM 7.3115 9.8174
12/12/2021 9:15:00 AM 7.3249 9.8832
12/12/2021 9:30:00 AM 7.3321 9.9434
12/12/2021 9:45:00 AM 7.3382 10.0596
12/12/2021 10:00:00 AM 7.3495 10.2578
12/12/2021 10:15:00 AM 7.3471 11.0578
12/12/2021 10:30:00 AM 7.3426 11.447
12/12/2021 10:45:00 AM 7.3381 12.1601
12/12/2021 11:00:00 AM 7.3361 12.6254
12/12/2021 11:15:00 AM 7.3373 13.4752
12/12/2021 11:30:00 AM 7.3252 14.0366
12/12/2021 11:45:00 AM 7.336 14.3
12/12/2021 12:00:00 PM 7.3292 14.0935
12/12/2021 12:15:00 PM 7.3276 14.3208
12/12/2021 12:30:00 PM 7.3239 14.1593
12/12/2021 12:45:00 PM 7.3265 13.4512
12/12/2021 1:00:00 PM 7.3277 12.9647
12/12/2021 1:15:00 PM 7.3305 12.8854
12/12/2021 1:30:00 PM 7.3215 12.3812
12/12/2021 1:45:00 PM 7.3254 12.2036
12/12/2021 2:00:00 PM 7.3334 12.3246
12/12/2021 2:15:00 PM 7.3516 12.2529
12/12/2021 2:30:00 PM 7.3538 12.4354
12/12/2021 2:45:00 PM 7.3436 12.5681
12/12/2021 3:00:00 PM 7.3357 12.4764
12/12/2021 3:15:00 PM 7.3229 12.3212
12/12/2021 3:30:00 PM 7.3049 12.0391
12/12/2021 3:45:00 PM 7.3037 11.7058
12/12/2021 4:00:00 PM 7.3047 11.547
12/12/2021 4:15:00 PM 7.3088 11.3804
12/12/2021 4:30:00 PM 7.3123 11.1461
12/12/2021 4:45:00 PM 7.3145 10.9784
12/12/2021 5:00:00 PM 7.3189 10.806
12/12/2021 5:15:00 PM 7.3222 10.6518
12/12/2021 5:30:00 PM 7.3241 10.5528
12/12/2021 5:45:00 PM 7.322 10.5
12/12/2021 6:00:00 PM 7.3285 10.3607
12/12/2021 6:15:00 PM 7.3327 10.2819
12/12/2021 6:30:00 PM 7.3337 10.0744
12/12/2021 6:45:00 PM 7.3338 10.872
12/12/2021 7:00:00 PM 7.337 10.3241
12/12/2021 7:15:00 PM 7.3383 10.184
12/12/2021 7:30:00 PM 7.3381 10.1381
12/12/2021 7:45:00 PM 7.3409 10.0797
12/12/2021 8:00:00 PM 7.3431 9.9639
12/12/2021 8:15:00 PM 7.3427 9.9094
12/12/2021 8:30:00 PM 7.3428 9.773
12/12/2021 8:45:00 PM 7.3444 9.8
12/12/2021 9:00:00 PM 7.3418 9.652
12/12/2021 9:15:00 PM 7.339 9.6578
12/12/2021 9:30:00 PM 7.3426 9.6882
12/12/2021 9:45:00 PM 7.3556 9.6723
12/12/2021 10:00:00 PM 7.3698 9.672
12/12/2021 10:15:00 PM 7.3855 9.7047
12/12/2021 10:30:00 PM 7.3886 9.7472
12/12/2021 10:45:00 PM 7.391 9.737
12/12/2021 11:00:00 PM 7.3985 9.6021
12/12/2021 11:15:00 PM 7.4037 9.5774
12/12/2021 11:30:00 PM 7.3948 9.5521
12/12/2021 11:45:00 PM 7.3864 9.6
12/13/2021 12:00:00 AM 7.3908 9.5089
12/13/2021 12:15:00 AM 7.3892 9.4325
12/13/2021 12:30:00 AM 7.3889 9.4398
12/13/2021 12:45:00 AM 7.388 9.4487
12/13/2021 1:00:00 AM 7.3482 9.816
12/13/2021 1:15:00 AM 7.3324 10.4895
12/13/2021 1:30:00 AM 7.3285 9.9083
12/13/2021 1:45:00 AM 7.3292 9.8244
12/13/2021 2:00:00 AM 7.3327 9.8334
12/13/2021 2:15:00 AM 7.3334 9.672
12/13/2021 2:30:00 AM 7.3332 9.6625
12/13/2021 2:45:00 AM 7.3304 9.6
12/13/2021 3:00:00 AM 7.3334 9.6463
12/13/2021 3:15:00 AM 7.3335 9.721
12/13/2021 3:30:00 AM 7.3332 9.7427
12/13/2021 3:45:00 AM 7.3336 9.8181
12/13/2021 4:00:00 AM 7.3324 9.8573
12/13/2021 4:15:00 AM 7.3325 9.6738
12/13/2021 4:30:00 AM 7.3293 9.6417
12/13/2021 4:45:00 AM 7.3265 9.5778
12/13/2021 5:00:00 AM 7.3233 9.5634
12/13/2021 5:15:00 AM 7.3202 9.6478
12/13/2021 5:30:00 AM 7.3185 9.8441
12/13/2021 5:45:00 AM 7.3206 9.9
12/13/2021 6:00:00 AM 7.3116 9.9284
12/13/2021 6:15:00 AM 7.3085 9.9569
12/13/2021 6:30:00 AM 7.3058 9.8882
12/13/2021 6:45:00 AM 7.3041 9.9434
12/13/2021 7:00:00 AM 7.3133 9.8677
12/13/2021 7:15:00 AM 7.3269 9.9686
12/13/2021 7:30:00 AM 7.331 10.0562
12/13/2021 7:45:00 AM 7.3093 10.0274
12/13/2021 8:00:00 AM 7.3195 9.9463
12/13/2021 8:15:00 AM 7.3419 9.9534
12/13/2021 8:30:00 AM 7.356 9.775
12/13/2021 8:45:00 AM 7.3626 9.8
12/13/2021 9:00:00 AM 7.3582 9.5737
12/13/2021 9:15:00 AM 7.347 9.5935
12/13/2021 9:30:00 AM 7.3291 9.537
12/13/2021 9:45:00 AM 7.3177 9.8345
12/13/2021 10:00:00 AM 7.3047 9.5129
12/13/2021 10:15:00 AM 7.3048 9.4643
12/13/2021 10:30:00 AM 7.3144 9.3205
12/13/2021 10:45:00 AM 7.3077 9.2971
12/13/2021 11:00:00 AM 7.3004 9.3267
12/13/2021 11:15:00 AM 7.2936 9.5489
12/13/2021 11:30:00 AM 7.2948 9.4711
12/13/2021 11:45:00 AM 7.294 9.4
12/13/2021 12:00:00 PM 7.27 9.373
12/13/2021 12:15:00 PM 7.2623 9.3844
12/13/2021 12:30:00 PM 7.2609 9.4106
12/13/2021 12:45:00 PM 7.261 9.4431
12/13/2021 1:00:00 PM 7.2626 9.3621
12/13/2021 1:15:00 PM 7.2658 9.4412
12/13/2021 1:30:00 PM 7.2672 9.5482
12/13/2021 1:45:00 PM 7.2708 9.4413
12/13/2021 2:00:00 PM 7.2728 9.6078
12/13/2021 2:15:00 PM 7.2768 9.6495
12/13/2021 2:30:00 PM 7.2807 9.7994
12/13/2021 2:45:00 PM 7.2838 9.8298
12/13/2021 3:00:00 PM 7.2862 9.7627
12/13/2021 3:15:00 PM 7.2897 9.6636
12/13/2021 3:30:00 PM 7.2942 9.4916
12/13/2021 3:45:00 PM 7.2968 9.3651
12/13/2021 4:00:00 PM 7.2995 9.2393
12/13/2021 4:15:00 PM 7.3027 9.1357
12/13/2021 4:30:00 PM 7.3041 9.0719
12/13/2021 4:45:00 PM 7.3078 8.9952
12/13/2021 5:00:00 PM 7.309 8.8643
12/13/2021 5:15:00 PM 7.3116 8.8374
12/13/2021 5:30:00 PM 7.3141 8.7577
12/13/2021 5:45:00 PM 7.315 8.8
12/13/2021 6:00:00 PM 7.3144 8.7601
12/13/2021 6:15:00 PM 7.3141 8.7469
12/13/2021 6:30:00 PM 7.3139 8.8126
12/13/2021 6:45:00 PM 7.314 8.8339
12/13/2021 7:00:00 PM 7.3142 9.0007
12/13/2021 7:15:00 PM 7.3129 9.1231
12/13/2021 7:30:00 PM 7.3096 8.8905
12/13/2021 7:45:00 PM 7.3091 8.8388
12/13/2021 8:00:00 PM 7.3086 8.8137
12/13/2021 8:15:00 PM 7.3057 8.9523
12/13/2021 8:30:00 PM 7.3044 8.9406
12/13/2021 8:45:00 PM 7.3066 9
12/13/2021 9:00:00 PM 7.3 8.7639
12/13/2021 9:15:00 PM 7.2978 8.7686
12/13/2021 9:30:00 PM 7.2951 8.7413
12/13/2021 9:45:00 PM 7.2915 8.739
12/13/2021 10:00:00 PM 7.2885 8.7646
12/13/2021 10:15:00 PM 7.2898 8.7655
12/13/2021 10:30:00 PM 7.2903 8.7691
12/13/2021 10:45:00 PM 7.2904 8.7924
12/13/2021 11:00:00 PM 7.2926 9.0088
12/13/2021 11:15:00 PM 7.2826 9.0832
12/13/2021 11:30:00 PM 7.2767 8.8829
12/13/2021 11:45:00 PM 7.273 8.9
12/14/2021 12:00:00 AM 7.2708 8.7919
12/14/2021 12:15:00 AM 7.2707 8.9497
12/14/2021 12:30:00 AM 7.2693 8.9677
12/14/2021 12:45:00 AM 7.2657 9.0286
12/14/2021 1:00:00 AM 7.2659 8.9313
12/14/2021 1:15:00 AM 7.2655 8.8992
12/14/2021 1:30:00 AM 7.2652 9.2195
12/14/2021 1:45:00 AM 7.2655 9.0652
12/14/2021 2:00:00 AM 7.2661 9.0062
12/14/2021 2:15:00 AM 7.266 9.0779
12/14/2021 2:30:00 AM 7.2685 9.1677
12/14/2021 2:45:00 AM 7.2688 9.3001
12/14/2021 3:00:00 AM 7.2696 8.9455
12/14/2021 3:15:00 AM 7.2698 8.8631
12/14/2021 3:30:00 AM 7.272 8.9355
12/14/2021 3:45:00 AM 7.2729 8.9039
12/14/2021 4:00:00 AM 7.2748 8.8169
12/14/2021 4:15:00 AM 7.2756 8.8066
12/14/2021 4:30:00 AM 7.2749 9.0209
12/14/2021 4:45:00 AM 7.2752 9.3182
12/14/2021 5:00:00 AM 7.2743 9.0259
12/14/2021 5:15:00 AM 7.274 8.8956
12/14/2021 5:30:00 AM 7.2711 8.8952
12/14/2021 5:45:00 AM 7.2688 8.9999
12/14/2021 6:00:00 AM 7.2711 8.8993
12/14/2021 6:15:00 AM 7.2712 9.0705
12/14/2021 6:30:00 AM 7.2711 8.8526
12/14/2021 6:45:00 AM 7.2702 8.7492
12/14/2021 7:00:00 AM 7.2681 8.7967
12/14/2021 7:15:00 AM 7.2664 8.841
12/14/2021 7:30:00 AM 7.2631 8.7417
12/14/2021 7:45:00 AM 7.2614 8.7364
12/14/2021 8:00:00 AM 7.2614 8.7711
12/14/2021 8:15:00 AM 7.2579 8.7071
12/14/2021 8:30:00 AM 7.2568 8.6304
12/14/2021 8:45:00 AM 7.252 8.7
12/14/2021 9:00:00 AM 7.2527 8.5954
12/14/2021 9:15:00 AM 7.2514 8.618
12/14/2021 9:30:00 AM 7.2497 8.6044
12/14/2021 9:45:00 AM 7.2472 8.5856
12/14/2021 10:00:00 AM 7.245 8.7916
12/14/2021 10:15:00 AM 7.2425 9.158
12/14/2021 10:30:00 AM 7.2411 8.9145
12/14/2021 10:45:00 AM 7.2395 8.6676
12/14/2021 11:00:00 AM 7.2378 8.4827
12/14/2021 11:15:00 AM 7.2389 8.4502
12/14/2021 11:30:00 AM 7.2401 8.3651
12/14/2021 11:45:00 AM 7.2352 8.3999
12/14/2021 12:00:00 PM 7.2377 8.4037
12/14/2021 12:15:00 PM 7.2378 8.4162
12/14/2021 12:30:00 PM 7.2397 8.2827
12/14/2021 12:45:00 PM 7.2417 8.2566
12/14/2021 1:00:00 PM 7.2423 8.1372
12/14/2021 1:15:00 PM 7.2452 8.1292
12/14/2021 1:30:00 PM 7.2471 8.1555
12/14/2021 1:45:00 PM 7.251 8.1616
12/14/2021 2:00:00 PM 7.2539 8.1459
12/14/2021 2:15:00 PM 7.2577 8.0464
12/14/2021 2:30:00 PM 7.262 8.0624
12/14/2021 2:45:00 PM 7.2662 8.0496
12/14/2021 3:00:00 PM 7.2722 7.96
12/14/2021 3:15:00 PM 7.2774 7.956
12/14/2021 3:30:00 PM 7.2827 7.9539
12/14/2021 3:45:00 PM 7.2877 7.9375
12/14/2021 4:00:00 PM 7.2925 7.9883
12/14/2021 4:15:00 PM 7.2954 8.3221
12/14/2021 4:30:00 PM 7.3001 8.1645
12/14/2021 4:45:00 PM 7.3053 8.116
12/14/2021 5:00:00 PM 7.31 7.9669
12/14/2021 5:15:00 PM 7.3156 7.9299
12/14/2021 5:30:00 PM 7.3203 7.9252
12/14/2021 5:45:00 PM 7.3206 7.9
12/14/2021 6:00:00 PM 7.3254 7.8416
12/14/2021 6:15:00 PM 7.3288 7.8796
12/14/2021 6:30:00 PM 7.3289 7.8779
12/14/2021 6:45:00 PM 7.3312 7.9631
12/14/2021 7:00:00 PM 7.3335 7.9529
12/14/2021 7:15:00 PM 7.3333 7.907
12/14/2021 7:30:00 PM 7.3339 7.9854
12/14/2021 7:45:00 PM 7.3336 8.0132
12/14/2021 8:00:00 PM 7.3315 7.892
12/14/2021 8:15:00 PM 7.329 7.8574
12/14/2021 8:30:00 PM 7.3292 7.8653
12/14/2021 8:45:00 PM 7.3276 7.9
12/14/2021 9:00:00 PM 7.324 7.89
12/14/2021 9:15:00 PM 7.3219 7.8226
12/14/2021 9:30:00 PM 7.3191 7.8441
12/14/2021 9:45:00 PM 7.3153 7.832
12/14/2021 10:00:00 PM 7.3134 7.7634
12/14/2021 10:15:00 PM 7.3092 7.9148
12/14/2021 10:30:00 PM 7.3087 8.7616
12/14/2021 10:45:00 PM 7.3048 8.1534
12/14/2021 11:00:00 PM 7.3046 7.8778
12/14/2021 11:15:00 PM 7.3023 7.8643
12/14/2021 11:30:00 PM 7.2998 7.8089
12/14/2021 11:45:00 PM 7.2968 7.9
12/15/2021 12:00:00 AM 7.3017 8.1982
12/15/2021 12:15:00 AM 7.3074 7.8523
12/15/2021 12:30:00 AM 7.313 7.6408
12/15/2021 12:45:00 AM 7.3191 7.5897
12/15/2021 1:00:00 AM 7.3224 7.7036
12/15/2021 1:15:00 AM 7.324 7.7466
12/15/2021 1:30:00 AM 7.3244 7.7028
12/15/2021 1:45:00 AM 7.3274 7.6464
12/15/2021 2:00:00 AM 7.3288 7.6802
12/15/2021 2:15:00 AM 7.3291 7.9055
12/15/2021 2:30:00 AM 7.3292 8.0248
12/15/2021 2:45:00 AM 7.3276 7.8999
12/15/2021 3:00:00 AM 7.3318 7.9005
12/15/2021 3:15:00 AM 7.3337 7.7237
12/15/2021 3:30:00 AM 7.3337 7.5575
12/15/2021 3:45:00 AM 7.3341 7.4733
12/15/2021 4:00:00 AM 7.3342 7.4446
12/15/2021 4:15:00 AM 7.3335 7.4304
12/15/2021 4:30:00 AM 7.3347 7.4573
12/15/2021 4:45:00 AM 7.3367 7.4486
12/15/2021 5:00:00 AM 7.352 7.4472
12/15/2021 5:15:00 AM 7.3613 7.429
12/15/2021 5:30:00 AM 7.3665 7.4472
12/15/2021 5:45:00 AM 7.3668 7.4
12/15/2021 6:00:00 AM 7.3596 7.4924
12/15/2021 6:15:00 AM 7.3592 7.5388
12/15/2021 6:30:00 AM 7.3574 7.5254
12/15/2021 6:45:00 AM 7.3533 7.4389
12/15/2021 7:00:00 AM 7.3487 7.3613
12/15/2021 7:15:00 AM 7.3464 7.5091
12/15/2021 7:30:00 AM 7.3436 7.527
12/15/2021 7:45:00 AM 7.3422 7.4359
12/15/2021 8:00:00 AM 7.3385 7.3918
12/15/2021 8:15:00 AM 7.3347 8.0862
12/15/2021 8:30:00 AM 7.3321 9.3492
12/15/2021 8:45:00 AM 7.3304 9.2001
12/15/2021 9:00:00 AM 7.324 7.9964
12/15/2021 9:15:00 AM 7.3214 7.7763
12/15/2021 9:30:00 AM 7.3195 7.6323
12/15/2021 9:45:00 AM 7.3157 7.546
12/15/2021 10:00:00 AM 7.3144 7.5524
12/15/2021 10:15:00 AM 7.3108 7.6143
12/15/2021 10:30:00 AM 7.3098 7.4749
12/15/2021 10:45:00 AM 7.3076 7.4032
12/15/2021 11:00:00 AM 7.3053 7.3685
12/15/2021 11:15:00 AM 7.3048 7.3335
12/15/2021 11:30:00 AM 7.3048 7.2396
12/15/2021 11:45:00 AM 7.3038 7.2
12/15/2021 12:00:00 PM 7.3031 7.2445
12/15/2021 12:15:00 PM 7.301 7.2392
12/15/2021 12:30:00 PM 7.3011 7.2151
12/15/2021 12:45:00 PM 7.3026 7.1696
12/15/2021 1:00:00 PM 7.3049 7.1409
12/15/2021 1:15:00 PM 7.3055 7.1286
12/15/2021 1:30:00 PM 7.3066 7.1534
12/15/2021 1:45:00 PM 7.31 7.1459
12/15/2021 2:00:00 PM 7.31 7.6974
12/15/2021 2:15:00 PM 7.314 7.6264
12/15/2021 2:30:00 PM 7.3141 7.3518
12/15/2021 2:45:00 PM 7.3177 7.2447
12/15/2021 3:00:00 PM 7.3196 7.1986
12/15/2021 3:15:00 PM 7.3228 7.1284
12/15/2021 3:30:00 PM 7.3252 7.1406
12/15/2021 3:45:00 PM 7.3293 7.1419
12/15/2021 4:00:00 PM 7.3336 7.058
12/15/2021 4:15:00 PM 7.3379 7.1287
12/15/2021 4:30:00 PM 7.3387 7.2454
12/15/2021 4:45:00 PM 7.3435 7.4837
12/15/2021 5:00:00 PM 7.3496 7.4298
12/15/2021 5:15:00 PM 7.3645 7.2921
12/15/2021 5:30:00 PM 7.3796 7.2584
12/15/2021 5:45:00 PM 7.3892 7.2
12/15/2021 6:00:00 PM 7.4076 7.2535
12/15/2021 6:15:00 PM 7.413 7.2812
12/15/2021 6:30:00 PM 7.414 7.4589
12/15/2021 6:45:00 PM 7.4119 7.6209
12/15/2021 7:00:00 PM 7.4092 7.9095
12/15/2021 7:15:00 PM 7.4104 8.6657
12/15/2021 7:30:00 PM 7.3996 8.97
12/15/2021 7:45:00 PM 7.4088 9.3811
12/15/2021 8:00:00 PM 7.407 9.6758
12/15/2021 8:15:00 PM 7.3984 9.6905
12/15/2021 8:30:00 PM 7.3868 9.4201
12/15/2021 8:45:00 PM 7.3878 9.3999
12/15/2021 9:00:00 PM 7.4024 9.4399
12/15/2021 9:15:00 PM 7.3948 9.2652
12/15/2021 9:30:00 PM 7.3894 9.1289
12/15/2021 9:45:00 PM 7.3884 8.8246
12/15/2021 10:00:00 PM 7.3892 8.6337
12/15/2021 10:15:00 PM 7.3855 8.4517
12/15/2021 10:30:00 PM 7.3846 8.3679
12/15/2021 10:45:00 PM 7.3711 8.4709
12/15/2021 11:00:00 PM 7.3806 8.3899
12/15/2021 11:15:00 PM 7.3894 8.2652
12/15/2021 11:30:00 PM 7.3954 8.1166
12/15/2021 11:45:00 PM 7.3822 8
12/16/2021 12:00:00 AM 7.3875 8.0376
12/16/2021 12:15:00 AM 7.385 7.9609
12/16/2021 12:30:00 AM 7.3633 7.9589
12/16/2021 12:45:00 AM 7.359 7.8657
12/16/2021 1:00:00 AM 7.3587 7.7721
12/16/2021 1:15:00 AM 7.372 7.7146
12/16/2021 1:30:00 AM 7.3734 7.6446
12/16/2021 1:45:00 AM 7.3716 7.6447
12/16/2021 2:00:00 AM 7.3834 7.5539
12/16/2021 2:15:00 AM 7.38 7.5432
12/16/2021 2:30:00 AM 7.3711 7.9865
12/16/2021 2:45:00 AM 7.3682 8.6
12/16/2021 3:00:00 AM 7.3618 9.1185
12/16/2021 3:15:00 AM 7.3783 8.2889
12/16/2021 3:30:00 AM 7.3629 7.8176
12/16/2021 3:45:00 AM 7.3696 7.867
12/16/2021 4:00:00 AM 7.373 7.8871
12/16/2021 4:15:00 AM 7.3638 7.779
12/16/2021 4:30:00 AM 7.3502 7.6118
12/16/2021 4:45:00 AM 7.3502 7.6192
12/16/2021 5:00:00 AM 7.382 7.6745
12/16/2021 5:15:00 AM 7.3745 7.4956
12/16/2021 5:30:00 AM 7.3829 7.5225
12/16/2021 5:45:00 AM 7.3822 7.5
12/16/2021 6:00:00 AM 7.3846 7.4581
12/16/2021 6:15:00 AM 7.3566 7.425
12/16/2021 6:30:00 AM 7.3507 7.6102
12/16/2021 6:45:00 AM 7.3391 7.7044
12/16/2021 7:00:00 AM 7.3362 7.6591
12/16/2021 7:15:00 AM 7.3477 7.6352
12/16/2021 7:30:00 AM 7.3347 7.5955
12/16/2021 7:45:00 AM 7.3505 7.5371
12/16/2021 8:00:00 AM 7.3286 7.4801
12/16/2021 8:15:00 AM 7.3393 7.4186
12/16/2021 8:30:00 AM 7.3346 7.3498
12/16/2021 8:45:00 AM 7.3388 7.3
12/16/2021 9:00:00 AM 7.3255 7.3434
12/16/2021 9:15:00 AM 7.3178 7.2817
12/16/2021 9:30:00 AM 7.3312 7.2466
12/16/2021 9:45:00 AM 7.3609 7.2454
12/16/2021 10:00:00 AM 7.3336 7.3085
12/16/2021 10:15:00 AM 7.3498 7.3361
12/16/2021 10:30:00 AM 7.3941 7.3629
12/16/2021 10:45:00 AM 7.4071 7.3386
12/16/2021 11:00:00 AM 7.4078 7.3536
12/16/2021 11:15:00 AM 7.3858 7.3731
12/16/2021 11:30:00 AM 7.3561 7.4376
12/16/2021 11:45:00 AM 7.3486 7.3
12/16/2021 12:00:00 PM 7.3944 7.2467
12/16/2021 12:15:00 PM 7.3634 7.2177
12/16/2021 12:30:00 PM 7.3838 7.1491
12/16/2021 12:45:00 PM 7.4087 7.2085
12/16/2021 1:00:00 PM 7.4443 7.1551
12/16/2021 1:15:00 PM 7.4555 7.1489
12/16/2021 1:30:00 PM 7.4642 7.1408
12/16/2021 1:45:00 PM 7.4231 7.17
12/16/2021 2:00:00 PM 7.4504 7.1405
12/16/2021 2:15:00 PM 7.4617 7.1515
12/16/2021 2:30:00 PM 7.5144 7.0858
12/16/2021 2:45:00 PM 7.6619 7.099
12/16/2021 3:00:00 PM 7.7792 7.059
12/16/2021 3:15:00 PM 7.6752 7.15
12/16/2021 3:30:00 PM 7.6023 7.0645
12/16/2021 3:45:00 PM 7.5536 7.0336
12/16/2021 4:00:00 PM 7.5196 7.0475
12/16/2021 4:15:00 PM 7.4913 7.0549
12/16/2021 4:30:00 PM 7.4795 7.0575
12/16/2021 4:45:00 PM 7.4881 7.1859
12/16/2021 5:00:00 PM 7.4866 7.3071
12/16/2021 5:15:00 PM 7.4891 7.2524
12/16/2021 5:30:00 PM 7.4858 7.145
12/16/2021 5:45:00 PM 7.497 7.2
12/16/2021 6:00:00 PM 7.521 7.1248
12/16/2021 6:15:00 PM 7.5089 7.0979
12/16/2021 6:30:00 PM 7.5268 7.0581
12/16/2021 6:45:00 PM 7.6152 7.0538
12/16/2021 7:00:00 PM 7.6737 7.0556
12/16/2021 7:15:00 PM 7.7024 7.2099
12/16/2021 7:30:00 PM 7.6346 7.6542
12/16/2021 7:45:00 PM 7.5817 7.4125
12/16/2021 8:00:00 PM 7.5315 7.16
12/16/2021 8:15:00 PM 7.5095 7.1332
12/16/2021 8:30:00 PM 7.5019 7.1589
12/16/2021 8:45:00 PM 7.497 7.1
12/16/2021 9:00:00 PM 7.4906 7.0358
12/16/2021 9:15:00 PM 7.4907 7.0759
12/16/2021 9:30:00 PM 7.4876 7.103
12/16/2021 9:45:00 PM 7.4859 7.1744
12/16/2021 10:00:00 PM 7.5753 7.3861
12/16/2021 10:15:00 PM 7.6158 7.481
12/16/2021 10:30:00 PM 7.6004 7.3585
12/16/2021 10:45:00 PM 7.6299 7.3436
12/16/2021 11:00:00 PM 7.677 7.4866
12/16/2021 11:15:00 PM 7.6219 8.1635
12/16/2021 11:30:00 PM 7.5927 8.3546
12/16/2021 11:45:00 PM 7.5796 8.3
12/17/2021 12:00:00 AM 7.5141 7.7939
12/17/2021 12:15:00 AM 7.4617 7.6543
12/17/2021 12:30:00 AM 7.4382 7.3682
12/17/2021 12:45:00 AM 7.4337 7.3417
12/17/2021 1:00:00 AM 7.4272 7.3519
12/17/2021 1:15:00 AM 7.4199 7.4808
12/17/2021 1:30:00 AM 7.4179 8.584
12/17/2021 1:45:00 AM 7.4148 9.0692
12/17/2021 2:00:00 AM 7.4124 8.5958
12/17/2021 2:15:00 AM 7.4179 8.4548
12/17/2021 2:30:00 AM 7.4171 8.366
12/17/2021 2:45:00 AM 7.4018 8.3
12/17/2021 3:00:00 AM 7.5286 8.354
12/17/2021 3:15:00 AM 7.6111 8.7006
12/17/2021 3:30:00 AM 7.6169 8.9004
12/17/2021 3:45:00 AM 7.5943 8.9861
12/17/2021 4:00:00 AM 7.5406 8.6688
12/17/2021 4:15:00 AM 7.4942 8.8973
12/17/2021 4:30:00 AM 7.4831 9.0315
12/17/2021 4:45:00 AM 7.4626 8.8272
12/17/2021 5:00:00 AM 7.4548 8.5813
12/17/2021 5:15:00 AM 7.4743 8.4672
12/17/2021 5:30:00 AM 7.4702 8.3387
12/17/2021 5:45:00 AM 7.4578 8.3
12/17/2021 6:00:00 AM 7.4544 8.1638
12/17/2021 6:15:00 AM 7.4461 8.131
12/17/2021 6:30:00 AM 7.4186 7.9811
12/17/2021 6:45:00 AM 7.3991 8.0231
12/17/2021 7:00:00 AM 7.3888 7.8743
12/17/2021 7:15:00 AM 7.3857 7.7993
12/17/2021 7:30:00 AM 7.3841 7.6589
12/17/2021 7:45:00 AM 7.3831 7.6419
12/17/2021 8:00:00 AM 7.3822 7.3522
12/17/2021 8:15:00 AM 7.4149 7.3428
12/17/2021 8:30:00 AM 7.4621 7.3055
12/17/2021 8:45:00 AM 7.469 7.2
12/17/2021 9:00:00 AM 7.457 8.1528
12/17/2021 9:15:00 AM 7.4545 9.1213
12/17/2021 9:30:00 AM 7.4186 8.0886
12/17/2021 9:45:00 AM 7.4176 7.7781
12/17/2021 10:00:00 AM 7.4365 7.469
12/17/2021 10:15:00 AM 7.4058 7.3612
12/17/2021 10:30:00 AM 7.4076 7.3638
12/17/2021 10:45:00 AM 7.4357 7.3633
12/17/2021 11:00:00 AM 7.4132 7.327
12/17/2021 11:15:00 AM 7.4183 7.4405
12/17/2021 11:30:00 AM 7.3945 7.4732
12/17/2021 11:45:00 AM 7.3906 7.5
12/17/2021 12:00:00 PM 7.3912 7.3906
12/17/2021 12:15:00 PM 7.4088 7.3526
12/17/2021 12:30:00 PM 7.4495 7.5262
12/17/2021 12:45:00 PM 7.4637 7.5935
12/17/2021 1:00:00 PM 7.4533 7.5584
12/17/2021 1:15:00 PM 7.4383 7.5182
12/17/2021 1:30:00 PM 7.3835 7.3737
12/17/2021 1:45:00 PM 7.3765 7.3324
12/17/2021 2:00:00 PM 7.3825 7.2654
12/17/2021 2:15:00 PM 7.3928 7.2593
12/17/2021 2:30:00 PM 7.4045 7.2499
12/17/2021 2:45:00 PM 7.4102 7.2278
12/17/2021 3:00:00 PM 7.4175 7.1849
12/17/2021 3:15:00 PM 7.4298 7.1354
12/17/2021 3:30:00 PM 7.4376 7.0514
12/17/2021 3:45:00 PM 7.4609 7.2287
12/17/2021 4:00:00 PM 7.519 7.3359
12/17/2021 4:15:00 PM 7.5997 7.2333
12/17/2021 4:30:00 PM 7.7081 7.1604
12/17/2021 4:45:00 PM 7.7794 7.1264
12/17/2021 5:00:00 PM 7.7662 6.9836
12/17/2021 5:15:00 PM 7.761 7.0335
12/17/2021 5:30:00 PM 7.7534 6.9966
12/17/2021 5:45:00 PM 7.7294 7
12/17/2021 6:00:00 PM 7.7328 6.9549
12/17/2021 6:15:00 PM 7.6744 7.0095
12/17/2021 6:30:00 PM 7.6564 7.468
12/17/2021 6:45:00 PM 7.6352 7.8281
12/17/2021 7:00:00 PM 7.6407 7.3653
12/17/2021 7:15:00 PM 7.6443 7.2424
12/17/2021 7:30:00 PM 7.6112 7.1216
12/17/2021 7:45:00 PM 7.5934 7.1506
12/17/2021 8:00:00 PM 7.5843 8.0486
12/17/2021 8:15:00 PM 7.5893 7.4129
12/17/2021 8:30:00 PM 7.572 7.2684
12/17/2021 8:45:00 PM 7.5656 7.3001
12/17/2021 9:00:00 PM 7.5681 7.2731
12/17/2021 9:15:00 PM 7.5803 7.2498
12/17/2021 9:30:00 PM 7.5758 7.2543
12/17/2021 9:45:00 PM 7.5511 7.2435
12/17/2021 10:00:00 PM 7.5411 7.1447
12/17/2021 10:15:00 PM 7.5316 7.1516
12/17/2021 10:30:00 PM 7.5187 7.1639
12/17/2021 10:45:00 PM 7.5129 7.2215
12/17/2021 11:00:00 PM 7.5143 7.1732
12/17/2021 11:15:00 PM 7.5029 7.1769
12/17/2021 11:30:00 PM 7.4964 7.0799
12/17/2021 11:45:00 PM 7.4956 7.1
12/18/2021 12:00:00 AM 7.4874 6.9727
12/18/2021 12:15:00 AM 7.4811 7.0492
12/18/2021 12:30:00 AM 7.483 7.0623
12/18/2021 12:45:00 AM 7.4904 7.0574
12/18/2021 1:00:00 AM 7.4963 7.065
12/18/2021 1:15:00 AM 7.491 7.0713
12/18/2021 1:30:00 AM 7.4781 6.9835
12/18/2021 1:45:00 AM 7.4796 7.0521
12/18/2021 2:00:00 AM 7.4674 6.9482
12/18/2021 2:15:00 AM 7.4512 6.9379
12/18/2021 2:30:00 AM 7.4125 6.949
12/18/2021 2:45:00 AM 7.406 7.0001
12/18/2021 3:00:00 AM 7.4081 7.1501
12/18/2021 3:15:00 AM 7.4225 7.5268
12/18/2021 3:30:00 AM 7.4398 7.1354
12/18/2021 3:45:00 AM 7.4603 7.1196
12/18/2021 4:00:00 AM 7.4671 7.1176
12/18/2021 4:15:00 AM 7.4527 7.1513
12/18/2021 4:30:00 AM 7.4392 7.0487
12/18/2021 4:45:00 AM 7.4467 7.0235
12/18/2021 5:00:00 AM 7.4395 7.0726
12/18/2021 5:15:00 AM 7.426 8.1267
12/18/2021 5:30:00 AM 7.4366 7.459
12/18/2021 5:45:00 AM 7.4466 7.3
12/18/2021 6:00:00 AM 7.45 7.0707
12/18/2021 6:15:00 AM 7.4343 7.0371
12/18/2021 6:30:00 AM 7.4345 7.019
12/18/2021 6:45:00 AM 7.4282 7.2159
12/18/2021 7:00:00 AM 7.4348 7.1412
12/18/2021 7:15:00 AM 7.4205 7.2077
12/18/2021 7:30:00 AM 7.4285 7.1902
12/18/2021 7:45:00 AM 7.413 7.1491
12/18/2021 8:00:00 AM 7.4069 7.0673
12/18/2021 8:15:00 AM 7.4004 7.0541
12/18/2021 8:30:00 AM 7.3994 6.9585
12/18/2021 8:45:00 AM 7.3934 7
12/18/2021 9:00:00 AM 7.4042 6.9994
12/18/2021 9:15:00 AM 7.4071 7.0068
12/18/2021 9:30:00 AM 7.3927 6.9539
12/18/2021 9:45:00 AM 7.3879 6.9596
12/18/2021 10:00:00 AM 7.3908 6.8413
12/18/2021 10:15:00 AM 7.3871 6.8333
12/18/2021 10:30:00 AM 7.3797 6.7378
12/18/2021 10:45:00 AM 7.3796 6.744
12/18/2021 11:00:00 AM 7.3816 6.75
12/18/2021 11:15:00 AM 7.3843 6.7873
12/18/2021 11:30:00 AM 7.3814 6.75
12/18/2021 11:45:00 AM 7.3752 6.8
12/18/2021 12:00:00 PM 7.3818 6.7852
12/18/2021 12:15:00 PM 7.3859 6.7854
12/18/2021 12:30:00 PM 7.3901 6.7417
12/18/2021 12:45:00 PM 7.3952 6.7543
12/18/2021 1:00:00 PM 7.4023 6.759
12/18/2021 1:15:00 PM 7.4045 6.7402
12/18/2021 1:30:00 PM 7.4092 6.7658
12/18/2021 1:45:00 PM 7.4135 6.7484
12/18/2021 2:00:00 PM 7.4171 6.7541
12/18/2021 2:15:00 PM 7.4237 6.7431
12/18/2021 2:30:00 PM 7.4272 6.7463
12/18/2021 2:45:00 PM 7.4322 6.7506
12/18/2021 3:00:00 PM 7.4347 6.7714
12/18/2021 3:15:00 PM 7.4371 6.7928
12/18/2021 3:30:00 PM 7.4431 6.7245
12/18/2021 3:45:00 PM 7.4483 6.7673
12/18/2021 4:00:00 PM 7.4516 6.8723
12/18/2021 4:15:00 PM 7.452 7.1497
12/18/2021 4:30:00 PM 7.4509 7.0503
12/18/2021 4:45:00 PM 7.45 7.1168
12/18/2021 5:00:00 PM 7.4486 7.0441
12/18/2021 5:15:00 PM 7.4477 7.1399
12/18/2021 5:30:00 PM 7.4454 7.2766
12/18/2021 5:45:00 PM 7.4452 7.3
12/18/2021 6:00:00 PM 7.4345 7.3275
12/18/2021 6:15:00 PM 7.4286 7.5628
12/18/2021 6:30:00 PM 7.4201 7.6247
12/18/2021 6:45:00 PM 7.4142 7.7224
12/18/2021 7:00:00 PM 7.4088 7.7065
12/18/2021 7:15:00 PM 7.4012 8.4649
12/18/2021 7:30:00 PM 7.4071 8.3834
12/18/2021 7:45:00 PM 7.4201 8.1584
12/18/2021 8:00:00 PM 7.4333 8.0486
12/18/2021 8:15:00 PM 7.4459 8.0524
12/18/2021 8:30:00 PM 7.4635 8.14
12/18/2021 8:45:00 PM 7.469 8.2999
12/18/2021 9:00:00 PM 7.4705 8.3491
12/18/2021 9:15:00 PM 7.4876 8.345
12/18/2021 9:30:00 PM 7.582 8.2421
12/18/2021 9:45:00 PM 7.6038 8.2404
12/18/2021 10:00:00 PM 7.6188 8.2533
12/18/2021 10:15:00 PM 7.6017 8.2582
12/18/2021 10:30:00 PM 7.6014 8.3282
12/18/2021 10:45:00 PM 7.5498 8.3342
12/18/2021 11:00:00 PM 7.5125 8.2158
12/18/2021 11:15:00 PM 7.4997 8.2175
12/18/2021 11:30:00 PM 7.4917 8.0698
12/18/2021 11:45:00 PM 7.5166 8.1
12/19/2021 12:00:00 AM 7.4836 8.1342
12/19/2021 12:15:00 AM 7.5032 8.2373
12/19/2021 12:30:00 AM 7.4827 8.3038
12/19/2021 12:45:00 AM 7.4115 8.5213
12/19/2021 1:00:00 AM 7.3988 8.5507
12/19/2021 1:15:00 AM 7.3961 8.5157
12/19/2021 1:30:00 AM 7.3963 8.4233
12/19/2021 1:45:00 AM 7.3987 8.4457
12/19/2021 2:00:00 AM 7.398 8.3625
12/19/2021 2:15:00 AM 7.3548 8.5548
12/19/2021 2:30:00 AM 7.3238 8.9218
12/19/2021 2:45:00 AM 7.3136 9.0001
12/19/2021 3:00:00 AM 7.3127 8.6966
12/19/2021 3:15:00 AM 7.3137 8.9155
12/19/2021 3:30:00 AM 7.3118 8.9337
12/19/2021 3:45:00 AM 7.3135 8.7562
12/19/2021 4:00:00 AM 7.3267 8.9293
12/19/2021 4:15:00 AM 7.3464 9.1247
12/19/2021 4:30:00 AM 7.3738 8.6695
12/19/2021 4:45:00 AM 7.3981 8.5224
12/19/2021 5:00:00 AM 7.4312 8.4447
12/19/2021 5:15:00 AM 7.4244 8.515
12/19/2021 5:30:00 AM 7.4306 8.6597
12/19/2021 5:45:00 AM 7.455 8.7
12/19/2021 6:00:00 AM 7.5246 8.5113
12/19/2021 6:15:00 AM 7.5509 8.5365
12/19/2021 6:30:00 AM 7.5196 8.4609
12/19/2021 6:45:00 AM 7.5403 8.4173
12/19/2021 7:00:00 AM 7.5502 8.3095
12/19/2021 7:15:00 AM 7.5262 8.3412
12/19/2021 7:30:00 AM 7.4697 8.2638
12/19/2021 7:45:00 AM 7.5097 8.3317
12/19/2021 8:00:00 AM 7.4542 8.2677
12/19/2021 8:15:00 AM 7.4542 8.3186
12/19/2021 8:30:00 AM 7.4377 8.5469
12/19/2021 8:45:00 AM 7.4354 8.7
12/19/2021 9:00:00 AM 7.4223 9.3092
12/19/2021 9:15:00 AM 7.3753 8.9809
12/19/2021 9:30:00 AM 7.3617 8.7118
12/19/2021 9:45:00 AM 7.3606 8.5957
12/19/2021 10:00:00 AM 7.3622 8.5644
12/19/2021 10:15:00 AM 7.3568 8.4673
12/19/2021 10:30:00 AM 7.3684 8.3358
12/19/2021 10:45:00 AM 7.3801 8.343
12/19/2021 11:00:00 AM 7.3755 8.237
12/19/2021 11:15:00 AM 7.3681 8.2469
12/19/2021 11:30:00 AM 7.3645 8.1577
12/19/2021 11:45:00 AM 7.3682 8.2
12/19/2021 12:00:00 PM 7.3641 7.9524
12/19/2021 12:15:00 PM 7.3678 7.9285
12/19/2021 12:30:00 PM 7.3727 7.9596
12/19/2021 12:45:00 PM 7.4208 7.9625
12/19/2021 1:00:00 PM 7.4613 7.8613
12/19/2021 1:15:00 PM 7.4721 7.8093
12/19/2021 1:30:00 PM 7.4885 7.8257
12/19/2021 1:45:00 PM 7.4927 7.8438
12/19/2021 2:00:00 PM 7.4568 7.8359
12/19/2021 2:15:00 PM 7.4735 7.8195
12/19/2021 2:30:00 PM 7.4623 7.7183
12/19/2021 2:45:00 PM 7.4501 7.734
12/19/2021 3:00:00 PM 7.4547 7.6372
12/19/2021 3:15:00 PM 7.4443 7.5507
12/19/2021 3:30:00 PM 7.45 7.5903
12/19/2021 3:45:00 PM 7.4669 7.7181
12/19/2021 4:00:00 PM 7.4768 7.6271
12/19/2021 4:15:00 PM 7.4945 7.5348
12/19/2021 4:30:00 PM 7.4567 7.4587
12/19/2021 4:45:00 PM 7.4429 7.4475
12/19/2021 5:00:00 PM 7.4368 7.9264
12/19/2021 5:15:00 PM 7.4382 7.7669
12/19/2021 5:30:00 PM 7.4401 7.5422
12/19/2021 5:45:00 PM 7.4424 7.5
12/19/2021 6:00:00 PM 7.4471 7.381
12/19/2021 6:15:00 PM 7.4462 7.3749
12/19/2021 6:30:00 PM 7.4456 7.2451
12/19/2021 6:45:00 PM 7.4487 7.1765
12/19/2021 7:00:00 PM 7.4481 7.0646
12/19/2021 7:15:00 PM 7.4469 7.1066
12/19/2021 7:30:00 PM 7.4471 6.9874
12/19/2021 7:45:00 PM 7.4473 6.9537
12/19/2021 8:00:00 PM 7.4454 6.9598
12/19/2021 8:15:00 PM 7.4433 6.9398
12/19/2021 8:30:00 PM 7.4439 6.966
12/19/2021 8:45:00 PM 7.4424 7
12/19/2021 9:00:00 PM 7.444 6.9677
12/19/2021 9:15:00 PM 7.4426 6.9958
12/19/2021 9:30:00 PM 7.437 6.9625
12/19/2021 9:45:00 PM 7.4387 6.9394
12/19/2021 10:00:00 PM 7.4394 6.9644
12/19/2021 10:15:00 PM 7.4295 6.94
12/19/2021 10:30:00 PM 7.4284 6.9708
12/19/2021 10:45:00 PM 7.4298 6.9587
12/19/2021 11:00:00 PM 7.4259 6.9164
12/19/2021 11:15:00 PM 7.4218 6.9543
12/19/2021 11:30:00 PM 7.4173 6.8687
12/19/2021 11:45:00 PM 7.4172 6.8001
12/20/2021 12:00:00 AM 7.4225 6.8631
12/20/2021 12:15:00 AM 7.4208 6.8523
12/20/2021 12:30:00 AM 7.421 6.8497
12/20/2021 12:45:00 AM 7.4181 6.8469
12/20/2021 1:00:00 AM 7.4138 6.8588
12/20/2021 1:15:00 AM 7.4185 6.9363
12/20/2021 1:30:00 AM 7.4216 6.8668
12/20/2021 1:45:00 AM 7.4154 6.8359
12/20/2021 2:00:00 AM 7.4167 6.8045
12/20/2021 2:15:00 AM 7.4254 6.8373
12/20/2021 2:30:00 AM 7.4204 6.8026
12/20/2021 2:45:00 AM 7.4158 6.8001
12/20/2021 3:00:00 AM 7.4183 6.7517
12/20/2021 3:15:00 AM 7.4198 6.784
12/20/2021 3:30:00 AM 7.4213 6.7687
12/20/2021 3:45:00 AM 7.4343 6.7667
12/20/2021 4:00:00 AM 7.4309 6.7501
12/20/2021 4:15:00 AM 7.4266 6.8227
12/20/2021 4:30:00 AM 7.4263 6.8389
12/20/2021 4:45:00 AM 7.4216 6.7544
12/20/2021 5:00:00 AM 7.417 6.8054
12/20/2021 5:15:00 AM 7.4332 6.7437
12/20/2021 5:30:00 AM 7.4386 6.6777
12/20/2021 5:45:00 AM 7.4354 6.6999
12/20/2021 6:00:00 AM 7.4503 6.6477
12/20/2021 6:15:00 AM 7.4403 6.6988
12/20/2021 6:30:00 AM 7.4388 6.7163
12/20/2021 6:45:00 AM 7.4355 6.8338
12/20/2021 7:00:00 AM 7.4534 6.7668
12/20/2021 7:15:00 AM 7.4208 6.7419
12/20/2021 7:30:00 AM 7.4143 6.7703
12/20/2021 7:45:00 AM 7.4102 6.7618
12/20/2021 8:00:00 AM 7.4097 6.7729
12/20/2021 8:15:00 AM 7.4093 6.7357
12/20/2021 8:30:00 AM 7.4066 6.6613
12/20/2021 8:45:00 AM 7.4102 6.7
12/20/2021 9:00:00 AM 7.4111 6.6251
12/20/2021 9:15:00 AM 7.4144 6.5847
12/20/2021 9:30:00 AM 7.4094 6.5519
12/20/2021 9:45:00 AM 7.4045 6.5575
12/20/2021 10:00:00 AM 7.4234 6.5428
12/20/2021 10:15:00 AM 7.4304 6.4939
12/20/2021 10:30:00 AM 7.4138 6.4568
12/20/2021 10:45:00 AM 7.409 6.4448
12/20/2021 11:00:00 AM 7.4063 6.4685
12/20/2021 11:15:00 AM 7.4062 6.5436
12/20/2021 11:30:00 AM 7.4147 6.61
12/20/2021 11:45:00 AM 7.42 6.5
12/20/2021 12:00:00 PM 7.4232 6.5482
12/20/2021 12:15:00 PM 7.4209 6.6169
12/20/2021 12:30:00 PM 7.4236 6.559
12/20/2021 12:45:00 PM 7.4277 6.5445
12/20/2021 1:00:00 PM 7.4328 6.4173
12/20/2021 1:15:00 PM 7.4322 6.4644
12/20/2021 1:30:00 PM 7.4357 6.3398
12/20/2021 1:45:00 PM 7.4478 6.3419
12/20/2021 2:00:00 PM 7.4627 6.2763
12/20/2021 2:15:00 PM 7.4828 6.2572
12/20/2021 2:30:00 PM 7.4849 6.2473
12/20/2021 2:45:00 PM 7.4883 6.517
12/20/2021 3:00:00 PM 7.4849 6.5602
12/20/2021 3:15:00 PM 7.4829 6.578
12/20/2021 3:30:00 PM 7.489 6.7232
12/20/2021 3:45:00 PM 7.5092 6.7363
12/20/2021 4:00:00 PM 7.5193 6.6569
12/20/2021 4:15:00 PM 7.5363 6.5714
12/20/2021 4:30:00 PM 7.536 6.7083
12/20/2021 4:45:00 PM 7.5349 6.7904
12/20/2021 5:00:00 PM 7.5292 6.6695
12/20/2021 5:15:00 PM 7.5343 6.6657
12/20/2021 5:30:00 PM 7.5389 6.6433
12/20/2021 5:45:00 PM 7.5334 6.7
12/20/2021 6:00:00 PM 7.5318 6.6036
12/20/2021 6:15:00 PM 7.5319 6.6256
12/20/2021 6:30:00 PM 7.5298 6.7253
12/20/2021 6:45:00 PM 7.5291 6.8025
12/20/2021 7:00:00 PM 7.5291 6.9269
12/20/2021 7:15:00 PM 7.5269 6.7806
12/20/2021 7:30:00 PM 7.5351 6.7745
12/20/2021 7:45:00 PM 7.5417 6.78
12/20/2021 8:00:00 PM 7.5205 6.8397
12/20/2021 8:15:00 PM 7.517 6.8448
12/20/2021 8:30:00 PM 7.516 6.7701
12/20/2021 8:45:00 PM 7.5152 6.7
12/20/2021 9:00:00 PM 7.5221 6.9746
12/20/2021 9:15:00 PM 7.5007 6.9407
12/20/2021 9:30:00 PM 7.4967 6.8732
12/20/2021 9:45:00 PM 7.4963 7.1539
12/20/2021 10:00:00 PM 7.4952 6.9872
12/20/2021 10:15:00 PM 7.4924 6.8467
12/20/2021 10:30:00 PM 7.4887 6.8722
12/20/2021 10:45:00 PM 7.4802 6.8471
12/20/2021 11:00:00 PM 7.4887 6.7494
12/20/2021 11:15:00 PM 7.4906 23.0155
12/20/2021 11:30:00 PM 7.4713 6.865
12/20/2021 11:45:00 PM 7.469 6.7
12/21/2021 12:00:00 AM 7.4654 6.5974
12/21/2021 12:15:00 AM 7.483 6.4493
12/21/2021 12:30:00 AM 7.4848 6.4534
12/21/2021 12:45:00 AM 7.4851 6.4532
12/21/2021 1:00:00 AM 7.494 6.3819
12/21/2021 1:15:00 AM 7.481 6.3466
12/21/2021 1:30:00 AM 7.4749 6.2501
12/21/2021 1:45:00 AM 7.4846 6.2638
12/21/2021 2:00:00 AM 7.4804 6.2882
12/21/2021 2:15:00 AM 7.4721 6.2422
12/21/2021 2:30:00 AM 7.482 6.1822
12/21/2021 2:45:00 AM 7.4788 6.2
12/21/2021 3:00:00 AM 7.4742 6.4044
12/21/2021 3:15:00 AM 7.4803 6.3413
12/21/2021 3:30:00 AM 7.4848 6.3738
12/21/2021 3:45:00 AM 7.4828 6.3658
12/21/2021 4:00:00 AM 7.486 6.3929
12/21/2021 4:15:00 AM 7.4861 6.4458
12/21/2021 4:30:00 AM 7.4877 6.4563
12/21/2021 4:45:00 AM 7.5033 6.4524
12/21/2021 5:00:00 AM 7.4705 6.3864
12/21/2021 5:15:00 AM 7.4732 6.3993
12/21/2021 5:30:00 AM 7.4757 6.378
12/21/2021 5:45:00 AM 7.4788 6.4
12/21/2021 6:00:00 AM 7.5018 6.3749
12/21/2021 6:15:00 AM 7.5106 6.4132
12/21/2021 6:30:00 AM 7.481 6.5649
12/21/2021 6:45:00 AM 7.4822 6.6239
12/21/2021 7:00:00 AM 7.5077 6.5211
12/21/2021 7:15:00 AM 7.5152 6.5331
12/21/2021 7:30:00 AM 7.5 6.4697
12/21/2021 7:45:00 AM 7.4837 6.3441
12/21/2021 8:00:00 AM 7.4742 6.2781
12/21/2021 8:15:00 AM 7.4588 6.265
12/21/2021 8:30:00 AM 7.4556 6.2657
12/21/2021 8:45:00 AM 7.4466 6.3
12/21/2021 9:00:00 AM 7.4786 6.2762
12/21/2021 9:15:00 AM 7.444 6.7715
12/21/2021 9:30:00 AM 7.4632 6.9729
12/21/2021 9:45:00 AM 7.4564 7.336
12/21/2021 10:00:00 AM 7.4657 6.9605
12/21/2021 10:15:00 AM 7.4398 6.6495
12/21/2021 10:30:00 AM 7.4497 6.6535
12/21/2021 10:45:00 AM 7.4706 6.5927
12/21/2021 11:00:00 AM 7.4417 6.6086
12/21/2021 11:15:00 AM 7.4422 6.6506
12/21/2021 11:30:00 AM 7.4489 6.4691
12/21/2021 11:45:00 AM 7.4494 6.3
12/21/2021 12:00:00 PM 7.4613 8.2659
12/21/2021 12:15:00 PM 7.4485 8.5516
12/21/2021 12:30:00 PM 7.4385 7.8624
12/21/2021 12:45:00 PM 7.4496 7.3924
12/21/2021 1:00:00 PM 7.4639 6.7467
12/21/2021 1:15:00 PM 7.4763 6.5532
12/21/2021 1:30:00 PM 7.4874 6.4723
12/21/2021 1:45:00 PM 7.4868 6.4107
12/21/2021 2:00:00 PM 7.476 6.3608
12/21/2021 2:15:00 PM 7.4682 6.9064
12/21/2021 2:30:00 PM 7.4772 6.8386
12/21/2021 2:45:00 PM 7.4884 6.695
12/21/2021 3:00:00 PM 7.4937 6.5496
12/21/2021 3:15:00 PM 7.5105 6.4574
12/21/2021 3:30:00 PM 7.5392 6.3614
12/21/2021 3:45:00 PM 7.5549 6.2407
12/21/2021 4:00:00 PM 7.5493 6.6297
12/21/2021 4:15:00 PM 7.5421 6.6926
12/21/2021 4:30:00 PM 7.5462 6.5836
12/21/2021 4:45:00 PM 7.5407 6.3729
12/21/2021 5:00:00 PM 7.546 6.2495
12/21/2021 5:15:00 PM 7.5574 6.2644
12/21/2021 5:30:00 PM 7.5864 6.3392
12/21/2021 5:45:00 PM 7.5698 6.5
12/21/2021 6:00:00 PM 7.558 6.1815
12/21/2021 6:15:00 PM 7.5604 6.1239
12/21/2021 6:30:00 PM 7.5557 6.1974
12/21/2021 6:45:00 PM 7.5603 6.3527
12/21/2021 7:00:00 PM 7.5698 6.3564
12/21/2021 7:15:00 PM 7.5689 6.3194
12/21/2021 7:30:00 PM 7.5643 6.2282
12/21/2021 7:45:00 PM 7.5551 6.2419
12/21/2021 8:00:00 PM 7.5488 6.1825
12/21/2021 8:15:00 PM 7.5377 6.1331
12/21/2021 8:30:00 PM 7.55 6.1355
12/21/2021 8:45:00 PM 7.574 6.2
12/21/2021 9:00:00 PM 7.5455 6.2428
12/21/2021 9:15:00 PM 7.5372 6.4207
12/21/2021 9:30:00 PM 7.5637 6.2846
12/21/2021 9:45:00 PM 7.5645 6.2301
12/21/2021 10:00:00 PM 7.5465 6.3029
12/21/2021 10:15:00 PM 7.5551 6.3486
12/21/2021 10:30:00 PM 7.5374 6.9247
12/21/2021 10:45:00 PM 7.5319 6.8607
12/21/2021 11:00:00 PM 7.5291 6.3272
12/21/2021 11:15:00 PM 7.518 6.2637
12/21/2021 11:30:00 PM 7.5238 6.2569
12/21/2021 11:45:00 PM 7.5264 6.2
12/22/2021 12:00:00 AM 7.5529 6.2696
12/22/2021 12:15:00 AM 7.5668 6.2848
12/22/2021 12:30:00 AM 7.5638 6.4647
12/22/2021 12:45:00 AM 7.5428 6.4742
12/22/2021 1:00:00 AM 7.5121 6.3329
12/22/2021 1:15:00 AM 7.5371 6.2184
12/22/2021 1:30:00 AM 7.5316 6.1935
12/22/2021 1:45:00 AM 7.5208 6.2433
12/22/2021 2:00:00 AM 7.5103 6.2462
12/22/2021 2:15:00 AM 7.4892 6.5046
12/22/2021 2:30:00 AM 7.501 6.6032
12/22/2021 2:45:00 AM 7.5124 6.5002
12/22/2021 3:00:00 AM 7.5315 6.3665
12/22/2021 3:15:00 AM 7.5196 6.423
12/22/2021 3:30:00 AM 7.5459 6.2616
12/22/2021 3:45:00 AM 7.5097 6.2507
12/22/2021 4:00:00 AM 7.5005 6.2526
12/22/2021 4:15:00 AM 7.5083 6.267
12/22/2021 4:30:00 AM 7.5157 6.2544
12/22/2021 4:45:00 AM 7.5188 6.2271
12/22/2021 5:00:00 AM 7.5607 6.1518
12/22/2021 5:15:00 AM 7.5596 6.204
12/22/2021 5:30:00 AM 7.5586 6.2921
12/22/2021 5:45:00 AM 7.5712 6.5
12/22/2021 6:00:00 AM 7.604 6.3314
12/22/2021 6:15:00 AM 7.5775 6.4529
12/22/2021 6:30:00 AM 7.5523 7.0162
12/22/2021 6:45:00 AM 7.5014 6.647
12/22/2021 7:00:00 AM 7.5182 6.3827
12/22/2021 7:15:00 AM 7.528 7.5537
12/22/2021 7:30:00 AM 7.5486 6.6928
12/22/2021 7:45:00 AM 7.5575 6.3915
12/22/2021 8:00:00 AM 7.5221 6.1653
12/22/2021 8:15:00 AM 7.5515 6.1535
12/22/2021 8:30:00 AM 7.538 6.1415
12/22/2021 8:45:00 AM 7.56 6.0999
12/22/2021 9:00:00 AM 7.5551 6.0783
12/22/2021 9:15:00 AM 7.5249 6.0517
12/22/2021 9:30:00 AM 7.5726 6.1196
12/22/2021 9:45:00 AM 7.5069 6.0663
12/22/2021 10:00:00 AM 7.5042 6.1067
12/22/2021 10:15:00 AM 7.4834 6.0756
12/22/2021 10:30:00 AM 7.4718 6.0889
12/22/2021 10:45:00 AM 7.4656 6.1379
12/22/2021 11:00:00 AM 7.4859 6.0791
12/22/2021 11:15:00 AM 7.4936 6.1385
12/22/2021 11:30:00 AM 7.5472 6.6701
12/22/2021 11:45:00 AM 7.616 7.5999
12/22/2021 12:00:00 PM 7.5579 7.4838
12/22/2021 12:15:00 PM 7.604 7.0592
12/22/2021 12:30:00 PM 7.5668 7.1725
12/22/2021 12:45:00 PM 7.5741 7.7671
12/22/2021 1:00:00 PM 7.5888 7.2993
12/22/2021 1:15:00 PM 7.5328 7.2461
12/22/2021 1:30:00 PM 7.5281 7.1105
12/22/2021 1:45:00 PM 7.4941 7.0632
12/22/2021 2:00:00 PM 7.5059 7.7535
12/22/2021 2:15:00 PM 7.5153 7.9688
12/22/2021 2:30:00 PM 7.533 7.5846
12/22/2021 2:45:00 PM 7.5358 7.4608
12/22/2021 3:00:00 PM 7.5391 8.2293
12/22/2021 3:15:00 PM 7.5659 8.8984
12/22/2021 3:30:00 PM 7.5731 9.0308
12/22/2021 3:45:00 PM 7.5596 8.1515
12/22/2021 4:00:00 PM 7.6177 8.1737
12/22/2021 4:15:00 PM 7.5824 9.3343
12/22/2021 4:30:00 PM 7.5789 8.07
12/22/2021 4:45:00 PM 7.5859 7.4307
12/22/2021 5:00:00 PM 7.5906 7.1729
12/22/2021 5:15:00 PM 7.6149 7.092
12/22/2021 5:30:00 PM 7.5894 6.96
12/22/2021 5:45:00 PM 7.574 6.9
12/22/2021 6:00:00 PM 7.5848 6.887
12/22/2021 6:15:00 PM 7.5887 6.887
12/22/2021 6:30:00 PM 7.5947 6.7629
12/22/2021 6:45:00 PM 7.5973 6.8389
12/22/2021 7:00:00 PM 7.6018 6.8453
12/22/2021 7:15:00 PM 7.6101 6.7898
12/22/2021 7:30:00 PM 7.6295 6.7493
12/22/2021 7:45:00 PM 7.6493 6.8279
12/22/2021 8:00:00 PM 7.6293 6.7428
12/22/2021 8:15:00 PM 7.6258 6.7567
12/22/2021 8:30:00 PM 7.6221 6.7202
12/22/2021 8:45:00 PM 7.6188 6.6999
12/22/2021 9:00:00 PM 7.616 6.6548
12/22/2021 9:15:00 PM 7.6381 6.6563
12/22/2021 9:30:00 PM 7.6738 6.6986
12/22/2021 9:45:00 PM 7.7303 6.7522
12/22/2021 10:00:00 PM 7.6739 6.7366
12/22/2021 10:15:00 PM 7.6691 6.7307
12/22/2021 10:30:00 PM 7.7179 6.6793
12/22/2021 10:45:00 PM 7.774 6.6397
12/22/2021 11:00:00 PM 7.7098 6.6705
12/22/2021 11:15:00 PM 7.6614 6.6834
12/22/2021 11:30:00 PM 7.6641 6.6391
12/22/2021 11:45:00 PM 7.6482 6.6
12/23/2021 12:00:00 AM 7.643 6.5428
12/23/2021 12:15:00 AM 7.6669 6.5491
12/23/2021 12:30:00 AM 7.6852 6.5688
12/23/2021 12:45:00 AM 7.6799 6.5429
12/23/2021 1:00:00 AM 7.6802 6.5387
12/23/2021 1:15:00 AM 7.6703 6.4791
12/23/2021 1:30:00 AM 7.6675 6.476
12/23/2021 1:45:00 AM 7.674 6.5476
12/23/2021 2:00:00 AM 7.6736 6.8624
12/23/2021 2:15:00 AM 7.6537 6.6764
12/23/2021 2:30:00 AM 7.6337 6.6465
12/23/2021 2:45:00 AM 7.623 6.6002
12/23/2021 3:00:00 AM 7.6172 6.4717
12/23/2021 3:15:00 AM 7.6265 6.4491
12/23/2021 3:30:00 AM 7.6294 6.4451
12/23/2021 3:45:00 AM 7.638 6.4133
12/23/2021 4:00:00 AM 7.6325 6.4225
12/23/2021 4:15:00 AM 7.6471 6.4188
12/23/2021 4:30:00 AM 7.6909 6.3551
12/23/2021 4:45:00 AM 7.6958 6.3404
12/23/2021 5:00:00 AM 7.7006 6.2962
12/23/2021 5:15:00 AM 7.6829 6.2824
12/23/2021 5:30:00 AM 7.6945 6.2313
12/23/2021 5:45:00 AM 7.7224 6.1
12/23/2021 6:00:00 AM 7.7039 6.1842
12/23/2021 6:15:00 AM 7.7092 6.1725
12/23/2021 6:30:00 AM 7.7213 6.1495
12/23/2021 6:45:00 AM 7.7344 6.1476
12/23/2021 7:00:00 AM 7.7288 6.1383
12/23/2021 7:15:00 AM 7.7395 6.1333
12/23/2021 7:30:00 AM 7.7396 6.1594
12/23/2021 7:45:00 AM 7.7262 6.1381
12/23/2021 8:00:00 AM 7.7144 6.1442
12/23/2021 8:15:00 AM 7.7006 6.1471
12/23/2021 8:30:00 AM 7.7162 6.1674
12/23/2021 8:45:00 AM 7.6958 6.4
12/23/2021 9:00:00 AM 7.6908 6.2592
12/23/2021 9:15:00 AM 7.6728 6.1889
12/23/2021 9:30:00 AM 7.6625 6.1656
12/23/2021 9:45:00 AM 7.6647 6.1464
12/23/2021 10:00:00 AM 7.676 6.1447
12/23/2021 10:15:00 AM 7.6444 6.1024
12/23/2021 10:30:00 AM 7.6372 6.0348
12/23/2021 10:45:00 AM 7.6051 6.0238
12/23/2021 11:00:00 AM 7.6001 6.0118
12/23/2021 11:15:00 AM 7.5992 5.9826
12/23/2021 11:30:00 AM 7.6004 6.0287
12/23/2021 11:45:00 AM 7.5852 6.1
12/23/2021 12:00:00 PM 7.6024 6.0262
12/23/2021 12:15:00 PM 7.5898 5.9539
12/23/2021 12:30:00 PM 7.5767 5.9316
12/23/2021 12:45:00 PM 7.5883 5.9409
12/23/2021 1:00:00 PM 7.5696 5.9315
12/23/2021 1:15:00 PM 7.5658 6.2682
12/23/2021 1:30:00 PM 7.5652 6.1371
12/23/2021 1:45:00 PM 7.5641 6.1942
12/23/2021 2:00:00 PM 7.5695 6.1802
12/23/2021 2:15:00 PM 7.566 6.0582
12/23/2021 2:30:00 PM 7.5657 5.9517
12/23/2021 2:45:00 PM 7.5749 5.9376
12/23/2021 3:00:00 PM 7.5981 5.8615
12/23/2021 3:15:00 PM 7.6077 5.8362
12/23/2021 3:30:00 PM 7.6079 5.8384
12/23/2021 3:45:00 PM 7.6103 5.8242
12/23/2021 4:00:00 PM 7.6372 5.8579
12/23/2021 4:15:00 PM 7.6486 5.8504
12/23/2021 4:30:00 PM 7.617 5.7863
12/23/2021 4:45:00 PM 7.6194 6.1347
12/23/2021 5:00:00 PM 7.6274 6.054
12/23/2021 5:15:00 PM 7.6237 6.0137
12/23/2021 5:30:00 PM 7.6323 5.9606
12/23/2021 5:45:00 PM 7.6286 5.9999
12/23/2021 6:00:00 PM 7.6371 5.8526
12/23/2021 6:15:00 PM 7.6412 5.9663
12/23/2021 6:30:00 PM 7.6436 6.074
12/23/2021 6:45:00 PM 7.6489 5.9528
12/23/2021 7:00:00 PM 7.6596 5.8455
12/23/2021 7:15:00 PM 7.658 5.8405
12/23/2021 7:30:00 PM 7.6596 5.863
12/23/2021 7:45:00 PM 7.658 5.8629
12/23/2021 8:00:00 PM 7.6609 5.8557
12/23/2021 8:15:00 PM 7.66 5.8359
12/23/2021 8:30:00 PM 7.6587 5.9952
12/23/2021 8:45:00 PM 7.6622 6
12/23/2021 9:00:00 PM 7.6593 5.8766
12/23/2021 9:15:00 PM 7.6604 5.8587
12/23/2021 9:30:00 PM 7.6538 5.8521
12/23/2021 9:45:00 PM 7.6512 5.8652
12/23/2021 10:00:00 PM 7.649 5.7807
12/23/2021 10:15:00 PM 7.6506 5.7726
12/23/2021 10:30:00 PM 7.6466 5.6915
12/23/2021 10:45:00 PM 7.6399 5.7539
12/23/2021 11:00:00 PM 7.6319 5.7073
12/23/2021 11:15:00 PM 7.6261 5.6905
12/23/2021 11:30:00 PM 7.6185 5.6605
12/23/2021 11:45:00 PM 7.616 5.7
12/24/2021 12:00:00 AM 7.608 5.8019
12/24/2021 12:15:00 AM 7.605 5.7459
12/24/2021 12:30:00 AM 7.6041 5.7238
12/24/2021 12:45:00 AM 7.6028 5.7543
12/24/2021 1:00:00 AM 7.6011 5.7321
12/24/2021 1:15:00 AM 7.5965 5.7316
12/24/2021 1:30:00 AM 7.5956 5.6831
12/24/2021 1:45:00 AM 7.588 5.6454
12/24/2021 2:00:00 AM 7.5796 5.7268
12/24/2021 2:15:00 AM 7.5779 5.7241
12/24/2021 2:30:00 AM 7.5787 5.6454
12/24/2021 2:45:00 AM 7.5796 5.6998
12/24/2021 3:00:00 AM 7.5787 5.6362
12/24/2021 3:15:00 AM 7.5777 5.8452
12/24/2021 3:30:00 AM 7.5742 5.6742
12/24/2021 3:45:00 AM 7.5844 5.6584
12/24/2021 4:00:00 AM 7.5856 5.6655
12/24/2021 4:15:00 AM 7.5789 5.6565
12/24/2021 4:30:00 AM 7.5705 5.5305
12/24/2021 4:45:00 AM 7.5768 5.5686
12/24/2021 5:00:00 AM 7.587 5.619
12/24/2021 5:15:00 AM 7.5831 5.6604
12/24/2021 5:30:00 AM 7.5789 5.9504
12/24/2021 5:45:00 AM 7.5642 6.1
12/24/2021 6:00:00 AM 7.5691 5.8559
12/24/2021 6:15:00 AM 7.5646 5.7397
12/24/2021 6:30:00 AM 7.5651 5.6536
12/24/2021 6:45:00 AM 7.5619 5.6657
12/24/2021 7:00:00 AM 7.5692 5.6191
12/24/2021 7:15:00 AM 7.5719 5.6495
12/24/2021 7:30:00 AM 7.5672 5.6595
12/24/2021 7:45:00 AM 7.5562 5.6365
12/24/2021 8:00:00 AM 7.5621 5.6452
12/24/2021 8:15:00 AM 7.5538 5.5866
12/24/2021 8:30:00 AM 7.582 5.6245
12/24/2021 8:45:00 AM 7.5698 5.7
12/24/2021 9:00:00 AM 7.557 5.5418
12/24/2021 9:15:00 AM 7.5741 5.8566
12/24/2021 9:30:00 AM 7.5464 6.3012
12/24/2021 9:45:00 AM 7.5464 6.3537
12/24/2021 10:00:00 AM 7.5327 5.9935
12/24/2021 10:15:00 AM 7.5487 5.7578
12/24/2021 10:30:00 AM 7.581 5.7237
12/24/2021 10:45:00 AM 7.565 5.6424
12/24/2021 11:00:00 AM 7.5492 5.6482
12/24/2021 11:15:00 AM 7.5355 5.6263
12/24/2021 11:30:00 AM 7.5227 5.6822
12/24/2021 11:45:00 AM 7.5306 6
12/24/2021 12:00:00 PM 7.5243 5.823
12/24/2021 12:15:00 PM 7.5214 5.6732
12/24/2021 12:30:00 PM 7.518 5.6223
12/24/2021 12:45:00 PM 7.5108 5.5505
12/24/2021 1:00:00 PM 7.5187 5.5625
12/24/2021 1:15:00 PM 7.5139 5.5346
12/24/2021 1:30:00 PM 7.5125 5.5606
12/24/2021 1:45:00 PM 7.5118 5.5458
12/24/2021 2:00:00 PM 7.5075 5.5588
12/24/2021 2:15:00 PM 7.5071 5.5434
12/24/2021 2:30:00 PM 7.5069 5.5253
12/24/2021 2:45:00 PM 7.5076 5.5226
12/24/2021 3:00:00 PM 7.5166 5.5611
12/24/2021 3:15:00 PM 7.5241 5.5414
12/24/2021 3:30:00 PM 7.5324 5.5447
12/24/2021 3:45:00 PM 7.5375 5.8537
12/24/2021 4:00:00 PM 7.5426 5.7515
12/24/2021 4:15:00 PM 7.5516 6.1235
12/24/2021 4:30:00 PM 7.5586 5.6739
12/24/2021 4:45:00 PM 7.5631 5.6362
12/24/2021 5:00:00 PM 7.5688 5.6289
12/24/2021 5:15:00 PM 7.5756 5.6538
12/24/2021 5:30:00 PM 7.5821 5.6339
12/24/2021 5:45:00 PM 7.588 5.7
12/24/2021 6:00:00 PM 7.5918 5.6483
12/24/2021 6:15:00 PM 7.6027 5.7425
12/24/2021 6:30:00 PM 7.6067 5.6629
12/24/2021 6:45:00 PM 7.6033 5.6632
12/24/2021 7:00:00 PM 7.6014 5.6629
12/24/2021 7:15:00 PM 7.6033 5.6304
12/24/2021 7:30:00 PM 7.608 5.6644
12/24/2021 7:45:00 PM 7.6068 5.7286
12/24/2021 8:00:00 PM 7.6139 5.6594
12/24/2021 8:15:00 PM 7.6185 5.6733
12/24/2021 8:30:00 PM 7.6276 5.6541
12/24/2021 8:45:00 PM 7.6286 5.7
12/24/2021 9:00:00 PM 7.6129 5.7433
12/24/2021 9:15:00 PM 7.6118 5.7701
12/24/2021 9:30:00 PM 7.6072 5.6748
12/24/2021 9:45:00 PM 7.6019 5.6271
12/24/2021 10:00:00 PM 7.6032 5.6563
12/24/2021 10:15:00 PM 7.6012 5.6542
12/24/2021 10:30:00 PM 7.599 5.6681
12/24/2021 10:45:00 PM 7.5887 5.635
12/24/2021 11:00:00 PM 7.5874 5.576
12/24/2021 11:15:00 PM 7.5827 5.5849
12/24/2021 11:30:00 PM 7.577 5.6013
12/24/2021 11:45:00 PM 7.5698 5.5999
12/25/2021 12:00:00 AM 7.5666 5.5694
12/25/2021 12:15:00 AM 7.5604 5.6137
12/25/2021 12:30:00 AM 7.5549 5.7591
12/25/2021 12:45:00 AM 7.5541 5.9745
12/25/2021 1:00:00 AM 7.5475 6.0011
12/25/2021 1:15:00 AM 7.5464 5.7486
12/25/2021 1:30:00 AM 7.5451 5.6392
12/25/2021 1:45:00 AM 7.5385 5.6336
12/25/2021 2:00:00 AM 7.5346 5.6334
12/25/2021 2:15:00 AM 7.5347 5.6262
12/25/2021 2:30:00 AM 7.5277 5.6435
12/25/2021 2:45:00 AM 7.525 5.6001
12/25/2021 3:00:00 AM 7.5271 5.7586
12/25/2021 3:15:00 AM 7.5328 5.8488
12/25/2021 3:30:00 AM 7.5313 5.7864
12/25/2021 3:45:00 AM 7.5256 5.779
12/25/2021 4:00:00 AM 7.5186 5.846
12/25/2021 4:15:00 AM 7.5167 5.7447
12/25/2021 4:30:00 AM 7.5095 5.7353
12/25/2021 4:45:00 AM 7.5098 5.7989
12/25/2021 5:00:00 AM 7.5052 5.9241
12/25/2021 5:15:00 AM 7.5029 5.9387
12/25/2021 5:30:00 AM 7.5002 5.8544
12/25/2021 5:45:00 AM 7.4998 6
12/25/2021 6:00:00 AM 7.4965 5.8484
12/25/2021 6:15:00 AM 7.4957 5.8288
12/25/2021 6:30:00 AM 7.4943 5.763
12/25/2021 6:45:00 AM 7.4897 5.8359
12/25/2021 7:00:00 AM 7.4883 5.8771
12/25/2021 7:15:00 AM 7.4885 5.9065
12/25/2021 7:30:00 AM 7.4855 5.9321
12/25/2021 7:45:00 AM 7.4816 5.9294
12/25/2021 8:00:00 AM 7.4777 5.9661
12/25/2021 8:15:00 AM 7.477 6.0454
12/25/2021 8:30:00 AM 7.4781 6.1256
12/25/2021 8:45:00 AM 7.4788 6.3
12/25/2021 9:00:00 AM 7.4693 6.8193
12/25/2021 9:15:00 AM 7.4687 7.8051
12/25/2021 9:30:00 AM 7.4596 9.4257
12/25/2021 9:45:00 AM 7.4542 11.8186
12/25/2021 10:00:00 AM 7.4486 16.9525
12/25/2021 10:15:00 AM 7.4459 41.3751
12/25/2021 10:30:00 AM 7.4451 55.8821
12/25/2021 10:45:00 AM 7.4433 65.052
12/25/2021 11:00:00 AM 7.4374 71.2616
12/25/2021 11:15:00 AM 7.4347 74.4513
12/25/2021 11:30:00 AM 7.4304 72.3856
12/25/2021 11:45:00 AM 7.4312 70.2001
12/25/2021 12:00:00 PM 7.4293 73.0528
12/25/2021 12:15:00 PM 7.4326 83.8794
12/25/2021 12:30:00 PM 7.4209 101.9488
12/25/2021 12:45:00 PM 7.4176 128.1358
12/25/2021 1:00:00 PM 7.4091 145.6115
12/25/2021 1:15:00 PM 7.402 156.4452
12/25/2021 1:30:00 PM 7.4033 161.7365
12/25/2021 1:45:00 PM 7.4028 161.6531
12/25/2021 2:00:00 PM 7.4094 159.1658
12/25/2021 2:15:00 PM 7.4182 157.4234
12/25/2021 2:30:00 PM 7.3999 136.9494
12/25/2021 2:45:00 PM 7.396 119.5422
12/25/2021 3:00:00 PM 7.405 109.0107
12/25/2021 3:15:00 PM 7.3864 97.122
12/25/2021 3:30:00 PM 7.3932 86.757
12/25/2021 3:45:00 PM 7.3931 78.821
12/25/2021 4:00:00 PM 7.4107 70.2682
12/25/2021 4:15:00 PM 7.4025 65.0067
12/25/2021 4:30:00 PM 7.4135 61.1473
12/25/2021 4:45:00 PM 7.4368 67.0697
12/25/2021 5:00:00 PM 7.4515 36.038
12/25/2021 5:15:00 PM 7.4105 19.0793
12/25/2021 5:30:00 PM 7.4013 18.1656
12/25/2021 5:45:00 PM 7.4032 18.2
12/25/2021 6:00:00 PM 7.4065 17.6445
12/25/2021 6:15:00 PM 7.4089 17.7096
12/25/2021 6:30:00 PM 7.4169 17.0549
12/25/2021 6:45:00 PM 7.4207 17.246
12/25/2021 7:00:00 PM 7.4166 16.5742
12/25/2021 7:15:00 PM 7.4179 16.1822
12/25/2021 7:30:00 PM 7.4267 16.4558
12/25/2021 7:45:00 PM 7.4321 16.5757
12/25/2021 8:00:00 PM 7.4345 16.4126
12/25/2021 8:15:00 PM 7.4381 16.4197
12/25/2021 8:30:00 PM 7.4301 16.4744
12/25/2021 8:45:00 PM 7.4298 16.5
12/25/2021 9:00:00 PM 7.4255 16.7728
12/25/2021 9:15:00 PM 7.4215 16.7675
12/25/2021 9:30:00 PM 7.427 16.751
12/25/2021 9:45:00 PM 7.4427 16.6384
12/25/2021 10:00:00 PM 7.4925 16.4307
12/25/2021 10:15:00 PM 7.4576 16.2629
12/25/2021 10:30:00 PM 7.4353 16.0133
12/25/2021 10:45:00 PM 7.4488 15.8795
12/25/2021 11:00:00 PM 7.4514 16.1909
12/25/2021 11:15:00 PM 7.4719 16.1125
12/25/2021 11:30:00 PM 7.4965 15.5303
12/25/2021 11:45:00 PM 7.4956 15.4
12/26/2021 12:00:00 AM 7.4385 15.1294
12/26/2021 12:15:00 AM 7.4228 14.8657
12/26/2021 12:30:00 AM 7.422 14.701
12/26/2021 12:45:00 AM 7.4528 14.5203
12/26/2021 1:00:00 AM 7.4362 14.3444
12/26/2021 1:15:00 AM 7.4305 14.0551
12/26/2021 1:30:00 AM 7.4171 13.7599
12/26/2021 1:45:00 AM 7.4187 13.6652
12/26/2021 2:00:00 AM 7.4212 13.5163
12/26/2021 2:15:00 AM 7.43 13.5198
12/26/2021 2:30:00 AM 7.4651 13.2991
12/26/2021 2:45:00 AM 7.4326 13.3998
12/26/2021 3:00:00 AM 7.5303 14.0245
12/26/2021 3:15:00 AM 7.4564 13.9949
12/26/2021 3:30:00 AM 7.437 13.4113
12/26/2021 3:45:00 AM 7.4372 13.0987
12/26/2021 4:00:00 AM 7.4715 12.8303
12/26/2021 4:15:00 AM 7.4758 12.6926
12/26/2021 4:30:00 AM 7.4559 12.5443
12/26/2021 4:45:00 AM 7.4434 12.2873
12/26/2021 5:00:00 AM 7.4247 12.1249
12/26/2021 5:15:00 AM 7.4376 11.9325
12/26/2021 5:30:00 AM 7.4414 11.772
12/26/2021 5:45:00 AM 7.4228 11.7
12/26/2021 6:00:00 AM 7.4486 12.2006
12/26/2021 6:15:00 AM 7.4858 11.997
12/26/2021 6:30:00 AM 7.4571 11.5484
12/26/2021 6:45:00 AM 7.4686 11.297
12/26/2021 7:00:00 AM 7.4427 11.0886
12/26/2021 7:15:00 AM 7.4361 10.9432
12/26/2021 7:30:00 AM 7.4622 10.8363
12/26/2021 7:45:00 AM 7.5041 10.7694
12/26/2021 8:00:00 AM 7.4497 10.7036
12/26/2021 8:15:00 AM 7.4292 10.5952
12/26/2021 8:30:00 AM 7.4426 10.4996
12/26/2021 8:45:00 AM 7.4424 10.5
12/26/2021 9:00:00 AM 7.4599 10.2545
12/26/2021 9:15:00 AM 7.4334 10.2527
12/26/2021 9:30:00 AM 7.4394 10.1731
12/26/2021 9:45:00 AM 7.4344 10.087
12/26/2021 10:00:00 AM 7.4818 9.9632
12/26/2021 10:15:00 AM 7.4616 9.9454
12/26/2021 10:30:00 AM 7.4357 9.8564
12/26/2021 10:45:00 AM 7.4806 9.7433
12/26/2021 11:00:00 AM 7.5024 9.6614
12/26/2021 11:15:00 AM 7.461 9.5654
12/26/2021 11:30:00 AM 7.4499 9.7279
12/26/2021 11:45:00 AM 7.4452 10
12/26/2021 12:00:00 PM 7.455 10.4391
12/26/2021 12:15:00 PM 7.4388 10.6773
12/26/2021 12:30:00 PM 7.4468 10.5994
12/26/2021 12:45:00 PM 7.4471 10.3259
12/26/2021 1:00:00 PM 7.4316 10.2404
12/26/2021 1:15:00 PM 7.4355 10.0844
12/26/2021 1:30:00 PM 7.4358 10.0683
12/26/2021 1:45:00 PM 7.3983 10.2272
12/26/2021 2:00:00 PM 7.366 10.2804
12/26/2021 2:15:00 PM 7.3735 10.2981
12/26/2021 2:30:00 PM 7.3844 9.9046
12/26/2021 2:45:00 PM 7.3966 9.7362
12/26/2021 3:00:00 PM 7.4045 9.6655
12/26/2021 3:15:00 PM 7.4123 9.6587
12/26/2021 3:30:00 PM 7.4158 9.6561
12/26/2021 3:45:00 PM 7.4175 9.8063
12/26/2021 4:00:00 PM 7.4209 9.9991
12/26/2021 4:15:00 PM 7.4224 9.8454
12/26/2021 4:30:00 PM 7.4244 9.7607
12/26/2021 4:45:00 PM 7.4248 10.0927
12/26/2021 5:00:00 PM 7.4284 10.1632
12/26/2021 5:15:00 PM 7.4506 10.0072
12/26/2021 5:30:00 PM 7.465 9.9748
12/26/2021 5:45:00 PM 7.4662 10
12/26/2021 6:00:00 PM 7.5339 10.0402
12/26/2021 6:15:00 PM 7.5609 10.1406
12/26/2021 6:30:00 PM 7.5916 10.0473
12/26/2021 6:45:00 PM 7.6067 11.368
12/26/2021 7:00:00 PM 7.5718 11.5101
12/26/2021 7:15:00 PM 7.5652 10.6518
12/26/2021 7:30:00 PM 7.6062 10.1426
12/26/2021 7:45:00 PM 7.542 9.959
12/26/2021 8:00:00 PM 7.6711 9.8403
12/26/2021 8:15:00 PM 7.7718 9.7617
12/26/2021 8:30:00 PM 7.8093 9.6527
12/26/2021 8:45:00 PM 7.7924 9.6
12/26/2021 9:00:00 PM 7.6849 9.5417
12/26/2021 9:15:00 PM 7.6805 9.5052
12/26/2021 9:30:00 PM 7.6627 9.4267
12/26/2021 9:45:00 PM 7.6607 9.3366
12/26/2021 10:00:00 PM 7.6134 9.3578
12/26/2021 10:15:00 PM 7.6086 9.3586
12/26/2021 10:30:00 PM 7.5965 9.3548
12/26/2021 10:45:00 PM 7.5801 9.5034
12/26/2021 11:00:00 PM 7.5617 9.519
12/26/2021 11:15:00 PM 7.5456 9.553
12/26/2021 11:30:00 PM 7.5827 9.4002
12/26/2021 11:45:00 PM 7.5894 9.4
12/27/2021 12:00:00 AM 7.5701 9.3427
12/27/2021 12:15:00 AM 7.64 9.3484
12/27/2021 12:30:00 AM 7.6432 9.3525
12/27/2021 12:45:00 AM 7.5878 9.335
12/27/2021 1:00:00 AM 7.5784 9.2579
12/27/2021 1:15:00 AM 7.5595 9.3536
12/27/2021 1:30:00 AM 7.5795 9.157
12/27/2021 1:45:00 AM 7.6009 9.149
12/27/2021 2:00:00 AM 7.5607 9.1325
12/27/2021 2:15:00 AM 7.6076 9.0994
12/27/2021 2:30:00 AM 7.6176 8.9565
12/27/2021 2:45:00 AM 7.6006 9
12/27/2021 3:00:00 AM 7.6177 8.8586
12/27/2021 3:15:00 AM 7.5659 8.8265
12/27/2021 3:30:00 AM 7.5525 8.8455
12/27/2021 3:45:00 AM 7.5208 8.8554
12/27/2021 4:00:00 AM 7.5124 8.8569
12/27/2021 4:15:00 AM 7.5373 8.828
12/27/2021 4:30:00 AM 7.5228 8.9002
12/27/2021 4:45:00 AM 7.5072 8.8491
12/27/2021 5:00:00 AM 7.5069 8.7614
12/27/2021 5:15:00 AM 7.518 8.7487
12/27/2021 5:30:00 AM 7.5188 8.7365
12/27/2021 5:45:00 AM 7.4956 8.7
12/27/2021 6:00:00 AM 7.4986 8.7229
12/27/2021 6:15:00 AM 7.5074 8.7081
12/27/2021 6:30:00 AM 7.4957 8.673
12/27/2021 6:45:00 AM 7.486 8.7436
12/27/2021 7:00:00 AM 7.4774 8.667
12/27/2021 7:15:00 AM 7.4724 8.6369
12/27/2021 7:30:00 AM 7.4984 8.6689
12/27/2021 7:45:00 AM 7.4929 8.6609
12/27/2021 8:00:00 AM 7.4762 8.6355
12/27/2021 8:15:00 AM 7.472 8.853
12/27/2021 8:30:00 AM 7.4646 9.0541
12/27/2021 8:45:00 AM 7.4592 9.6
12/27/2021 9:00:00 AM 7.4665 9.064
12/27/2021 9:15:00 AM 7.4587 8.8429
12/27/2021 9:30:00 AM 7.4444 8.6781
12/27/2021 9:45:00 AM 7.4506 8.6352
12/27/2021 10:00:00 AM 7.4567 8.5605
12/27/2021 10:15:00 AM 7.457 8.6383
12/27/2021 10:30:00 AM 7.4486 8.5501
12/27/2021 10:45:00 AM 7.4433 8.5626
12/27/2021 11:00:00 AM 7.456 8.5563
12/27/2021 11:15:00 AM 7.449 8.5487
12/27/2021 11:30:00 AM 7.4505 8.4508
12/27/2021 11:45:00 AM 7.4466 8.5
12/27/2021 12:00:00 PM 7.459 8.3439
12/27/2021 12:15:00 PM 7.4531 8.3507
12/27/2021 12:30:00 PM 7.4558 8.3633
12/27/2021 12:45:00 PM 7.4709 8.3954
12/27/2021 1:00:00 PM 7.4702 8.2853
12/27/2021 1:15:00 PM 7.465 8.3092
12/27/2021 1:30:00 PM 7.4737 8.3046
12/27/2021 1:45:00 PM 7.4851 8.3277
12/27/2021 2:00:00 PM 7.4959 8.2648
12/27/2021 2:15:00 PM 7.4881 8.2507
12/27/2021 2:30:00 PM 7.4838 8.2441
12/27/2021 2:45:00 PM 7.4868 8.2447
12/27/2021 3:00:00 PM 7.4859 8.1521
12/27/2021 3:15:00 PM 7.5309 8.142
12/27/2021 3:30:00 PM 7.5313 8.1557
12/27/2021 3:45:00 PM 7.5687 8.1345
12/27/2021 4:00:00 PM 7.5861 8.2733
12/27/2021 4:15:00 PM 7.5436 8.4078
12/27/2021 4:30:00 PM 7.5576 8.3721
12/27/2021 4:45:00 PM 7.5255 8.6973
12/27/2021 5:00:00 PM 7.5234 8.4724
12/27/2021 5:15:00 PM 7.5208 8.3465
12/27/2021 5:30:00 PM 7.5327 8.2406
12/27/2021 5:45:00 PM 7.5362 8.3
12/27/2021 6:00:00 PM 7.5067 8.2403
12/27/2021 6:15:00 PM 7.5066 8.3337
12/27/2021 6:30:00 PM 7.5056 8.5017
12/27/2021 6:45:00 PM 7.5018 8.7631
12/27/2021 7:00:00 PM 7.5025 8.468
12/27/2021 7:15:00 PM 7.4977 8.3578
12/27/2021 7:30:00 PM 7.4916 8.2493
12/27/2021 7:45:00 PM 7.4875 8.221
12/27/2021 8:00:00 PM 7.4921 8.1894
12/27/2021 8:15:00 PM 7.4835 8.2772
12/27/2021 8:30:00 PM 7.4765 8.9089
12/27/2021 8:45:00 PM 7.4732 8.7
12/27/2021 9:00:00 PM 7.4728 8.4127
12/27/2021 9:15:00 PM 7.4673 8.2343
12/27/2021 9:30:00 PM 7.4608 8.1513
12/27/2021 9:45:00 PM 7.4533 8.1606
12/27/2021 10:00:00 PM 7.4549 8.1399
12/27/2021 10:15:00 PM 7.4596 8.1709
12/27/2021 10:30:00 PM 7.4615 8.1438
12/27/2021 10:45:00 PM 7.4563 8.1679
12/27/2021 11:00:00 PM 7.4548 8.1566
12/27/2021 11:15:00 PM 7.4666 8.1259
12/27/2021 11:30:00 PM 7.4477 8.1678
12/27/2021 11:45:00 PM 7.448 8.2
12/28/2021 12:00:00 AM 7.4379 8.1533
12/28/2021 12:15:00 AM 7.434 8.1243
12/28/2021 12:30:00 AM 7.4316 7.9325
12/28/2021 12:45:00 AM 7.4344 8.0438
12/28/2021 1:00:00 AM 7.4408 8.1153
12/28/2021 1:15:00 AM 7.4375 8.5284
12/28/2021 1:30:00 AM 7.4334 8.3219
12/28/2021 1:45:00 AM 7.4375 8.4377
12/28/2021 2:00:00 AM 7.4316 8.1594
12/28/2021 2:15:00 AM 7.4415 8.0391
12/28/2021 2:30:00 AM 7.4349 7.9707
12/28/2021 2:45:00 AM 7.4396 8
12/28/2021 3:00:00 AM 7.4278 8.1113
12/28/2021 3:15:00 AM 7.4257 8.034
12/28/2021 3:30:00 AM 7.4294 7.9159
12/28/2021 3:45:00 AM 7.4183 7.8325
12/28/2021 4:00:00 AM 7.4177 7.8403
12/28/2021 4:15:00 AM 7.4159 7.8427
12/28/2021 4:30:00 AM 7.4128 7.8416
12/28/2021 4:45:00 AM 7.415 7.7675
12/28/2021 5:00:00 AM 7.4101 7.7564
12/28/2021 5:15:00 AM 7.4279 7.7561
12/28/2021 5:30:00 AM 7.4296 7.6822
12/28/2021 5:45:00 AM 7.4284 7.8
12/28/2021 6:00:00 AM 7.419 7.7022
12/28/2021 6:15:00 AM 7.4162 7.629
12/28/2021 6:30:00 AM 7.4231 7.6583
12/28/2021 6:45:00 AM 7.4377 7.6327
12/28/2021 7:00:00 AM 7.4396 7.6015
12/28/2021 7:15:00 AM 7.44 7.6016
12/28/2021 7:30:00 AM 7.4257 7.5716
12/28/2021 7:45:00 AM 7.4446 7.6973
12/28/2021 8:00:00 AM 7.4669 7.8534
12/28/2021 8:15:00 AM 7.453 7.7003
12/28/2021 8:30:00 AM 7.4161 7.6383
12/28/2021 8:45:00 AM 7.4214 7.6
12/28/2021 9:00:00 AM 7.4096 7.7206
12/28/2021 9:15:00 AM 7.406 7.6248
12/28/2021 9:30:00 AM 7.4055 7.5648
12/28/2021 9:45:00 AM 7.4114 7.5545
12/28/2021 10:00:00 AM 7.4182 7.4287
12/28/2021 10:15:00 AM 7.4128 7.3778
12/28/2021 10:30:00 AM 7.4045 7.3619
12/28/2021 10:45:00 AM 7.4152 7.3524
12/28/2021 11:00:00 AM 7.4332 7.2941
12/28/2021 11:15:00 AM 7.4406 7.3876
12/28/2021 11:30:00 AM 7.4541 7.3955
12/28/2021 11:45:00 AM 7.4844 7.4
12/28/2021 12:00:00 PM 7.4977 7.7514
12/28/2021 12:15:00 PM 7.5419 7.8783
12/28/2021 12:30:00 PM 7.5061 7.7489
12/28/2021 12:45:00 PM 7.5179 7.6802
12/28/2021 1:00:00 PM 7.5644 7.6162
12/28/2021 1:15:00 PM 7.5818 7.538
12/28/2021 1:30:00 PM 7.5667 7.444
12/28/2021 1:45:00 PM 7.6417 7.3413
12/28/2021 2:00:00 PM 7.7317 7.2684
12/28/2021 2:15:00 PM 7.7501 7.2296
12/28/2021 2:30:00 PM 7.7716 7.261
12/28/2021 2:45:00 PM 7.7664 7.1729
12/28/2021 3:00:00 PM 7.7124 7.1309
12/28/2021 3:15:00 PM 7.7044 7.0596
12/28/2021 3:30:00 PM 7.7368 7.0508
12/28/2021 3:45:00 PM 7.7169 7.0461
12/28/2021 4:00:00 PM 7.7198 7.0479
12/28/2021 4:15:00 PM 7.7305 7.0445
12/28/2021 4:30:00 PM 7.7223 6.961
12/28/2021 4:45:00 PM 7.7257 7.2967
12/28/2021 5:00:00 PM 7.7014 7.1832
12/28/2021 5:15:00 PM 7.6882 7.1431
12/28/2021 5:30:00 PM 7.6725 7.1231
12/28/2021 5:45:00 PM 7.6468 7
12/28/2021 6:00:00 PM 7.6383 7.1497
12/28/2021 6:15:00 PM 7.63 7.1382
12/28/2021 6:30:00 PM 7.6297 7.157
12/28/2021 6:45:00 PM 7.6305 7.2287
12/28/2021 7:00:00 PM 7.6084 7.143
12/28/2021 7:15:00 PM 7.5874 7.1624
12/28/2021 7:30:00 PM 7.5838 7.2114
12/28/2021 7:45:00 PM 7.5797 7.1477
12/28/2021 8:00:00 PM 7.5771 7.2815
12/28/2021 8:15:00 PM 7.565 7.2176
12/28/2021 8:30:00 PM 7.5602 7.2163
12/28/2021 8:45:00 PM 7.5656 7.3
12/28/2021 9:00:00 PM 7.5502 7.2746
12/28/2021 9:15:00 PM 7.5465 7.2438
12/28/2021 9:30:00 PM 7.5363 7.2557
12/28/2021 9:45:00 PM 7.5372 7.2467
12/28/2021 10:00:00 PM 7.5493 7.2356
12/28/2021 10:15:00 PM 7.5211 7.2545
12/28/2021 10:30:00 PM 7.52 7.2487
12/28/2021 10:45:00 PM 7.5101 7.2535
12/28/2021 11:00:00 PM 7.4985 7.2547
12/28/2021 11:15:00 PM 7.4828 7.2417
12/28/2021 11:30:00 PM 7.4798 7.2428
12/28/2021 11:45:00 PM 7.4886 7.4
12/29/2021 12:00:00 AM 7.4882 7.2674
12/29/2021 12:15:00 AM 7.4775 7.3162
12/29/2021 12:30:00 AM 7.4907 7.2604
12/29/2021 12:45:00 AM 7.4737 7.2938
12/29/2021 1:00:00 AM 7.4684 7.2378
12/29/2021 1:15:00 AM 7.469 7.229
12/29/2021 1:30:00 AM 7.4659 7.2844
12/29/2021 1:45:00 AM 7.4564 7.3304
12/29/2021 2:00:00 AM 7.4581 7.3532
12/29/2021 2:15:00 AM 7.4657 7.2453
12/29/2021 2:30:00 AM 7.4758 7.272
12/29/2021 2:45:00 AM 7.4788 7.2999
12/29/2021 3:00:00 AM 7.4543 7.2075
12/29/2021 3:15:00 AM 7.4514 7.137
12/29/2021 3:30:00 AM 7.4448 7.1439
12/29/2021 3:45:00 AM 7.4411 7.1292
12/29/2021 4:00:00 AM 7.4403 7.1644
12/29/2021 4:15:00 AM 7.4345 7.1462
12/29/2021 4:30:00 AM 7.4355 7.1951
12/29/2021 4:45:00 AM 7.4454 7.1663
12/29/2021 5:00:00 AM 7.443 7.1772
12/29/2021 5:15:00 AM 7.4431 7.2473
12/29/2021 5:30:00 AM 7.4398 7.2918
12/29/2021 5:45:00 AM 7.4424 7.3
12/29/2021 6:00:00 AM 7.4326 7.2538
12/29/2021 6:15:00 AM 7.4268 7.2386
12/29/2021 6:30:00 AM 7.4291 7.3371
12/29/2021 6:45:00 AM 7.4344 7.4395
12/29/2021 7:00:00 AM 7.4307 7.4419
12/29/2021 7:15:00 AM 7.4165 7.4179
12/29/2021 7:30:00 AM 7.415 7.4695
12/29/2021 7:45:00 AM 7.4126 7.4388
12/29/2021 8:00:00 AM 7.4178 7.4499
12/29/2021 8:15:00 AM 7.4181 7.3867
12/29/2021 8:30:00 AM 7.4159 7.3732
12/29/2021 8:45:00 AM 7.4102 7.4
12/29/2021 9:00:00 AM 7.4014 7.4125
12/29/2021 9:15:00 AM 7.4071 7.4421
12/29/2021 9:30:00 AM 7.4009 7.4576
12/29/2021 9:45:00 AM 7.4047 7.4482
12/29/2021 10:00:00 AM 7.3931 7.4301
12/29/2021 10:15:00 AM 7.3857 7.4371
12/29/2021 10:30:00 AM 7.3935 7.3525
12/29/2021 10:45:00 AM 7.3989 7.3332
12/29/2021 11:00:00 AM 7.4385 7.3417
12/29/2021 11:15:00 AM 7.47 7.3359
12/29/2021 11:30:00 AM 7.451 7.3484
12/29/2021 11:45:00 AM 7.5082 7.4
12/29/2021 12:00:00 PM 7.4506 7.2462
12/29/2021 12:15:00 PM 7.4793 7.2352
12/29/2021 12:30:00 PM 7.4433 7.2649
12/29/2021 12:45:00 PM 7.4483 7.236
12/29/2021 1:00:00 PM 7.4812 7.2466
12/29/2021 1:15:00 PM 7.4901 7.2422
12/29/2021 1:30:00 PM 7.4845 7.1969
12/29/2021 1:45:00 PM 7.4785 7.2384
12/29/2021 2:00:00 PM 7.5133 7.276
12/29/2021 2:15:00 PM 7.559 7.3247
12/29/2021 2:30:00 PM 7.5222 7.3866
12/29/2021 2:45:00 PM 7.5196 7.5477
12/29/2021 3:00:00 PM 7.508 7.7109
12/29/2021 3:15:00 PM 7.5519 7.8267
12/29/2021 3:30:00 PM 7.5859 7.9026
12/29/2021 3:45:00 PM 7.5744 8.1306
12/29/2021 4:00:00 PM 7.5535 8.5725
12/29/2021 4:15:00 PM 7.531 9.3555
12/29/2021 4:30:00 PM 7.5518 10.0373
12/29/2021 4:45:00 PM 7.5888 10.8466
12/29/2021 5:00:00 PM 7.5912 11.2437
12/29/2021 5:15:00 PM 7.5532 11.2395
12/29/2021 5:30:00 PM 7.5917 10.6492
12/29/2021 5:45:00 PM 7.5978 10.5
12/29/2021 6:00:00 PM 7.7244 9.8346
12/29/2021 6:15:00 PM 7.6762 9.6355
12/29/2021 6:30:00 PM 7.6625 9.4658
12/29/2021 6:45:00 PM 7.6907 9.2338
12/29/2021 7:00:00 PM 7.7143 9.0767
12/29/2021 7:15:00 PM 7.7227 9.0708
12/29/2021 7:30:00 PM 7.7135 8.9416
12/29/2021 7:45:00 PM 7.6477 8.8511
12/29/2021 8:00:00 PM 7.6423 8.9064
12/29/2021 8:15:00 PM 7.646 8.7114
12/29/2021 8:30:00 PM 7.6025 8.64
12/29/2021 8:45:00 PM 7.5992 8.7
12/29/2021 9:00:00 PM 7.6744 8.3989
12/29/2021 9:15:00 PM 7.612 8.3505
12/29/2021 9:30:00 PM 7.6456 8.267
12/29/2021 9:45:00 PM 7.6377 8.156
12/29/2021 10:00:00 PM 7.62 8.1658
12/29/2021 10:15:00 PM 7.5944 8.1368
12/29/2021 10:30:00 PM 7.6277 8.122
12/29/2021 10:45:00 PM 7.6007 8.134
12/29/2021 11:00:00 PM 7.5831 8.1495
12/29/2021 11:15:00 PM 7.6397 8.1221
12/29/2021 11:30:00 PM 7.6364 8.0427
12/29/2021 11:45:00 PM 7.5992 8.1
12/30/2021 12:00:00 AM 7.6311 7.9534
12/30/2021 12:15:00 AM 7.5839 7.9426
12/30/2021 12:30:00 AM 7.5706 7.9313
12/30/2021 12:45:00 AM 7.607 7.9476
12/30/2021 1:00:00 AM 7.5845 7.9377
12/30/2021 1:15:00 AM 7.5571 7.9047
12/30/2021 1:30:00 AM 7.5619 7.8673
12/30/2021 1:45:00 AM 7.5587 7.8305
12/30/2021 2:00:00 AM 7.5194 7.8403
12/30/2021 2:15:00 AM 7.523 7.838
12/30/2021 2:30:00 AM 7.5216 7.9111
12/30/2021 2:45:00 AM 7.5082 7.9
12/30/2021 3:00:00 AM 7.5165 7.8523
12/30/2021 3:15:00 AM 7.499 7.8321
12/30/2021 3:30:00 AM 7.4969 7.7478
12/30/2021 3:45:00 AM 7.5383 7.7446
12/30/2021 4:00:00 AM 7.8632 7.7522
12/30/2021 4:15:00 AM 7.9676 7.8359
12/30/2021 4:30:00 AM 7.9543 7.7413
12/30/2021 4:45:00 AM 7.8646 7.759
12/30/2021 5:00:00 AM 7.8263 7.6329
12/30/2021 5:15:00 AM 7.7986 7.6443
12/30/2021 5:30:00 AM 7.7705 7.6202
12/30/2021 5:45:00 AM 7.7616 7.6
12/30/2021 6:00:00 AM 7.7418 7.6232
12/30/2021 6:15:00 AM 7.7331 7.5319
12/30/2021 6:30:00 AM 7.7217 7.5295
12/30/2021 6:45:00 AM 7.7111 7.4315
12/30/2021 7:00:00 AM 7.6911 7.52
12/30/2021 7:15:00 AM 7.6819 7.5437
12/30/2021 7:30:00 AM 7.6733 7.537
12/30/2021 7:45:00 AM 7.662 7.5534
12/30/2021 8:00:00 AM 7.6558 7.4515
12/30/2021 8:15:00 AM 7.6574 7.4906
12/30/2021 8:30:00 AM 7.6543 7.4843
12/30/2021 8:45:00 AM 7.6552 7.5
12/30/2021 9:00:00 AM 7.6311 7.3384
12/30/2021 9:15:00 AM 7.6094 7.3584
12/30/2021 9:30:00 AM 7.6019 7.284
12/30/2021 9:45:00 AM 7.5917 7.2591
12/30/2021 10:00:00 AM 7.5772 7.2531
12/30/2021 10:15:00 AM 7.5697 7.2469
12/30/2021 10:30:00 AM 7.5667 7.1912
12/30/2021 10:45:00 AM 7.5572 7.1863
12/30/2021 11:00:00 AM 7.5588 7.1513
12/30/2021 11:15:00 AM 7.5847 7.1574
12/30/2021 11:30:00 AM 7.5902 7.0588
12/30/2021 11:45:00 AM 7.5768 7.1
12/30/2021 12:00:00 PM 7.7912 7.657
12/30/2021 12:15:00 PM 7.8058 8.0321
12/30/2021 12:30:00 PM 7.7964 7.9448
12/30/2021 12:45:00 PM 7.7187 7.6034
12/30/2021 1:00:00 PM 7.6541 7.2409
12/30/2021 1:15:00 PM 7.6398 7.1461
12/30/2021 1:30:00 PM 7.6237 7.0587
12/30/2021 1:45:00 PM 7.6141 7.0368
12/30/2021 2:00:00 PM 7.6169 6.9478
12/30/2021 2:15:00 PM 7.673 6.9553
12/30/2021 2:30:00 PM 7.7488 6.8489
12/30/2021 2:45:00 PM 7.8012 6.83
12/30/2021 3:00:00 PM 7.7433 6.8318
12/30/2021 3:15:00 PM 7.682 6.7782
12/30/2021 3:30:00 PM 7.6744 6.7468
12/30/2021 3:45:00 PM 7.6643 7.0524
12/30/2021 4:00:00 PM 7.6629 6.8973
12/30/2021 4:15:00 PM 7.6689 6.8006
12/30/2021 4:30:00 PM 7.6761 6.6765
12/30/2021 4:45:00 PM 7.7075 6.6384
12/30/2021 5:00:00 PM 7.7381 6.638
12/30/2021 5:15:00 PM 7.7652 6.6741
12/30/2021 5:30:00 PM 7.7115 6.6542
12/30/2021 5:45:00 PM 7.6944 6.7
12/30/2021 6:00:00 PM 7.6685 6.637
12/30/2021 6:15:00 PM 7.6678 6.6612
12/30/2021 6:30:00 PM 7.6903 6.6505
12/30/2021 6:45:00 PM 7.6943 6.6657
12/30/2021 7:00:00 PM 7.7016 6.6455
12/30/2021 7:15:00 PM 7.66 6.6292
12/30/2021 7:30:00 PM 7.6395 6.6488
12/30/2021 7:45:00 PM 7.6299 6.7605
12/30/2021 8:00:00 PM 7.6171 6.752
12/30/2021 8:15:00 PM 7.6093 6.8137
12/30/2021 8:30:00 PM 7.603 6.8153
12/30/2021 8:45:00 PM 7.6006 6.9
12/30/2021 9:00:00 PM 7.5851 6.9513
12/30/2021 9:15:00 PM 7.5722 6.952
12/30/2021 9:30:00 PM 7.5815 7.1294
12/30/2021 9:45:00 PM 7.6416 7.2967
12/30/2021 10:00:00 PM 7.6615 7.4539
12/30/2021 10:15:00 PM 7.6328 7.4744
12/30/2021 10:30:00 PM 7.5727 7.4309
12/30/2021 10:45:00 PM 7.5421 7.3723
12/30/2021 11:00:00 PM 7.5256 7.4151
12/30/2021 11:15:00 PM 7.514 7.6439
12/30/2021 11:30:00 PM 7.5058 8.005
12/30/2021 11:45:00 PM 7.497 8.2
12/31/2021 12:00:00 AM 7.4977 8.8916
12/31/2021 12:15:00 AM 7.5635 8.9812
12/31/2021 12:30:00 AM 7.5857 9.229
12/31/2021 12:45:00 AM 7.5744 9.0649
12/31/2021 1:00:00 AM 7.5155 8.7885
12/31/2021 1:15:00 AM 7.4866 8.7126
12/31/2021 1:30:00 AM 7.4618 8.5544
12/31/2021 1:45:00 AM 7.456 8.493
12/31/2021 2:00:00 AM 7.4539 8.502
12/31/2021 2:15:00 AM 7.4509 8.3215
12/31/2021 2:30:00 AM 7.4468 8.2508
12/31/2021 2:45:00 AM 7.4438 8.3
12/31/2021 3:00:00 AM 7.4714 8.163
12/31/2021 3:15:00 AM 7.5944 8.0555
12/31/2021 3:30:00 AM 7.6438 7.9587
12/31/2021 3:45:00 AM 7.6069 8.0124
12/31/2021 4:00:00 AM 7.5793 7.9676
12/31/2021 4:15:00 AM 7.5125 7.8561
12/31/2021 4:30:00 AM 7.4835 7.8669
12/31/2021 4:45:00 AM 7.4598 7.7815
12/31/2021 5:00:00 AM 7.4479 7.7424
12/31/2021 5:15:00 AM 7.4454 7.732
12/31/2021 5:30:00 AM 7.4484 7.7687
12/31/2021 5:45:00 AM 7.4424 7.8
12/31/2021 6:00:00 AM 7.4561 7.8314
12/31/2021 6:15:00 AM 7.5309 7.8636
12/31/2021 6:30:00 AM 7.5308 7.8457
12/31/2021 6:45:00 AM 7.5572 7.9686
12/31/2021 7:00:00 AM 7.3669 8.9862
12/31/2021 7:15:00 AM 7.3314 9.6772
12/31/2021 7:30:00 AM 7.305 8.6653
12/31/2021 7:45:00 AM 7.2945 7.8713
12/31/2021 8:00:00 AM 7.2888 7.5419
12/31/2021 8:15:00 AM 7.2842 7.3233
12/31/2021 8:30:00 AM 7.2811 7.1854
12/31/2021 8:45:00 AM 7.2744 7.1
12/31/2021 9:00:00 AM 7.2744 7.0486
12/31/2021 9:15:00 AM 7.2709 7.0487
12/31/2021 9:30:00 AM 7.2681 7.1404
12/31/2021 9:45:00 AM 7.2655 7.1793
12/31/2021 10:00:00 AM 7.2722 7.249
12/31/2021 10:15:00 AM 7.2802 7.1808
12/31/2021 10:30:00 AM 7.2805 7.1411
12/31/2021 10:45:00 AM 7.2804 7.1319
12/31/2021 11:00:00 AM 7.2808 7.048
12/31/2021 11:15:00 AM 7.28 7.0425
12/31/2021 11:30:00 AM 7.2795 6.9508
12/31/2021 11:45:00 AM 7.2786 6.9
12/31/2021 12:00:00 PM 7.2771 6.9307
12/31/2021 12:15:00 PM 7.2784 6.8579
12/31/2021 12:30:00 PM 7.2795 6.9441
12/31/2021 12:45:00 PM 7.2833 6.9458
12/31/2021 1:00:00 PM 7.2859 6.8561
12/31/2021 1:15:00 PM 7.2901 6.8497
12/31/2021 1:30:00 PM 7.2934 6.8563
12/31/2021 1:45:00 PM 7.2992 6.9302
12/31/2021 2:00:00 PM 7.3061 6.9589
12/31/2021 2:15:00 PM 7.3125 6.8605
12/31/2021 2:30:00 PM 7.3198 6.8721
12/31/2021 2:45:00 PM 7.3296 6.8348
12/31/2021 3:00:00 PM 7.3393 6.8519
12/31/2021 3:15:00 PM 7.3496 6.785
12/31/2021 3:30:00 PM 7.3603 6.7458
12/31/2021 3:45:00 PM 7.3705 7.0011
12/31/2021 4:00:00 PM 7.3772 6.9445
12/31/2021 4:15:00 PM 7.3877 6.8617
12/31/2021 4:30:00 PM 7.3971 6.9621
12/31/2021 4:45:00 PM 7.4053 6.9236
12/31/2021 5:00:00 PM 7.4122 6.8398
12/31/2021 5:15:00 PM 7.4166 6.853
12/31/2021 5:30:00 PM 7.4204 6.8891
12/31/2021 5:45:00 PM 7.4228 6.9
12/31/2021 6:00:00 PM 7.4259 6.7433
12/31/2021 6:15:00 PM 7.426 6.7919
12/31/2021 6:30:00 PM 7.4263 6.8669
12/31/2021 6:45:00 PM 7.4251 7.2487
12/31/2021 7:00:00 PM 7.4257 7.0795
12/31/2021 7:15:00 PM 7.4255 7.1826
12/31/2021 7:30:00 PM 7.4258 7.2561
12/31/2021 7:45:00 PM 7.4211 7.4988
12/31/2021 8:00:00 PM 7.4203 7.0616
12/31/2021 8:15:00 PM 7.4167 6.9168
12/31/2021 8:30:00 PM 7.4114 6.8612
12/31/2021 8:45:00 PM 7.413 6.9
12/31/2021 9:00:00 PM 7.4024 7.2001
12/31/2021 9:15:00 PM 7.3958 6.9206
12/31/2021 9:30:00 PM 7.3899 6.8509
12/31/2021 9:45:00 PM 7.3842 6.8292
12/31/2021 10:00:00 PM 7.3756 6.8534
12/31/2021 10:15:00 PM 7.3679 6.8399
12/31/2021 10:30:00 PM 7.3602 6.9026
12/31/2021 10:45:00 PM 7.3534 6.9448
12/31/2021 11:00:00 PM 7.3459 6.9218
12/31/2021 11:15:00 PM 7.3391 6.9568
12/31/2021 11:30:00 PM 7.3334 6.8609
12/31/2021 11:45:00 PM 7.3304 6.9
1/1/2022 12:00:00 AM 7.3223 6.8924
1/1/2022 12:15:00 AM 7.3178 6.9466
1/1/2022 12:30:00 AM 7.3141 6.929
1/1/2022 12:45:00 AM 7.3102 6.9547
1/1/2022 1:00:00 AM 7.3071 6.9494
1/1/2022 1:15:00 AM 7.303 6.9858
1/1/2022 1:30:00 AM 7.2996 7.1819
1/1/2022 1:45:00 AM 7.2964 7.1058
1/1/2022 2:00:00 AM 7.2951 6.9676
1/1/2022 2:15:00 AM 7.2908 6.9777
1/1/2022 2:30:00 AM 7.2895 7.0205
1/1/2022 2:45:00 AM 7.287 7.0999
1/1/2022 3:00:00 AM 7.2842 6.9695
1/1/2022 3:15:00 AM 7.2812 6.9385
1/1/2022 3:30:00 AM 7.2803 6.9932
1/1/2022 3:45:00 AM 7.279 6.9578
1/1/2022 4:00:00 AM 7.2763 7.0726
1/1/2022 4:15:00 AM 7.2758 7.011
1/1/2022 4:30:00 AM 7.2719 6.9633
1/1/2022 4:45:00 AM 7.2712 6.9351
1/1/2022 5:00:00 AM 7.2674 6.9351
1/1/2022 5:15:00 AM 7.2666 6.936
1/1/2022 5:30:00 AM 7.2624 7.2739
1/1/2022 5:45:00 AM 7.2632 7.7
1/1/2022 6:00:00 AM 7.2568 8.2735
1/1/2022 6:15:00 AM 7.2523 8.2208
1/1/2022 6:30:00 AM 7.2483 8.1128
1/1/2022 6:45:00 AM 7.245 7.6139
1/1/2022 7:00:00 AM 7.2408 7.321
1/1/2022 7:15:00 AM 7.2363 7.1755
1/1/2022 7:30:00 AM 7.2329 7.327
1/1/2022 7:45:00 AM 7.229 7.6803
1/1/2022 8:00:00 AM 7.2255 7.5795
1/1/2022 8:15:00 AM 7.2212 7.3016
1/1/2022 8:30:00 AM 7.2168 7.1386
1/1/2022 8:45:00 AM 7.2142 7.1
1/1/2022 9:00:00 AM 7.2088 6.9025
1/1/2022 9:15:00 AM 7.2071 6.8499
1/1/2022 9:30:00 AM 7.2033 6.8556
1/1/2022 9:45:00 AM 7.2014 6.8135
1/1/2022 10:00:00 AM 7.1984 6.7596
1/1/2022 10:15:00 AM 7.1985 6.7379
1/1/2022 10:30:00 AM 7.1969 6.7418
1/1/2022 10:45:00 AM 7.1961 6.7347
1/1/2022 11:00:00 AM 7.1972 6.7294
1/1/2022 11:15:00 AM 7.1983 6.6453
1/1/2022 11:30:00 AM 7.199 6.6281
1/1/2022 11:45:00 AM 7.1974 6.6
1/1/2022 12:00:00 PM 7.2032 6.7423
1/1/2022 12:15:00 PM 7.2063 6.6551
1/1/2022 12:30:00 PM 7.209 6.6619
1/1/2022 12:45:00 PM 7.2127 6.6066
1/1/2022 1:00:00 PM 7.2162 6.5285
1/1/2022 1:15:00 PM 7.2218 6.5516
1/1/2022 1:30:00 PM 7.2246 6.498
1/1/2022 1:45:00 PM 7.2306 6.5227
1/1/2022 2:00:00 PM 7.2353 6.5248
1/1/2022 2:15:00 PM 7.2423 6.5282
1/1/2022 2:30:00 PM 7.2493 6.5341
1/1/2022 2:45:00 PM 7.2576 6.4677
1/1/2022 3:00:00 PM 7.2663 6.4682
1/1/2022 3:15:00 PM 7.2758 6.4601
1/1/2022 3:30:00 PM 7.2854 6.4573
1/1/2022 3:45:00 PM 7.2955 6.421
1/1/2022 4:00:00 PM 7.3056 6.4353
1/1/2022 4:15:00 PM 7.3118 6.7114
1/1/2022 4:30:00 PM 7.3216 6.5678
1/1/2022 4:45:00 PM 7.3298 6.4838
1/1/2022 5:00:00 PM 7.3378 6.4518
1/1/2022 5:15:00 PM 7.3436 6.446
1/1/2022 5:30:00 PM 7.3472 6.4477
1/1/2022 5:45:00 PM 7.35 6.4
1/1/2022 6:00:00 PM 7.3527 6.4242
1/1/2022 6:15:00 PM 7.3533 6.4523
1/1/2022 6:30:00 PM 7.3535 6.6557
1/1/2022 6:45:00 PM 7.3533 6.5447
1/1/2022 7:00:00 PM 7.3535 6.5486
1/1/2022 7:15:00 PM 7.353 6.5188
1/1/2022 7:30:00 PM 7.3491 6.4589
1/1/2022 7:45:00 PM 7.3483 6.4593
1/1/2022 8:00:00 PM 7.346 6.5296
1/1/2022 8:15:00 PM 7.3427 6.5178
1/1/2022 8:30:00 PM 7.3388 6.499
1/1/2022 8:45:00 PM 7.3332 6.6
1/1/2022 9:00:00 PM 7.329 6.5105
1/1/2022 9:15:00 PM 7.3231 6.4738
1/1/2022 9:30:00 PM 7.3168 6.496
1/1/2022 9:45:00 PM 7.3106 6.5513
1/1/2022 10:00:00 PM 7.3036 6.5438
1/1/2022 10:15:00 PM 7.2968 6.5295
1/1/2022 10:30:00 PM 7.2888 6.552
1/1/2022 10:45:00 PM 7.2834 6.5347
1/1/2022 11:00:00 PM 7.2769 6.5809
1/1/2022 11:15:00 PM 7.2705 6.6163
1/1/2022 11:30:00 PM 7.2653 6.5424
1/1/2022 11:45:00 PM 7.2632 6.5
1/2/2022 12:00:00 AM 7.2548 6.5835
1/2/2022 12:15:00 AM 7.2512 6.6483
1/2/2022 12:30:00 AM 7.2468 6.6306
1/2/2022 12:45:00 AM 7.2424 6.6395
1/2/2022 1:00:00 AM 7.239 6.6539
1/2/2022 1:15:00 AM 7.2342 6.6542
1/2/2022 1:30:00 AM 7.2321 6.6617
1/2/2022 1:45:00 AM 7.2279 6.6377
1/2/2022 2:00:00 AM 7.2254 6.6413
1/2/2022 2:15:00 AM 7.2227 6.6451
1/2/2022 2:30:00 AM 7.2206 6.6465
1/2/2022 2:45:00 AM 7.217 6.6998
1/2/2022 3:00:00 AM 7.2181 6.6263
1/2/2022 3:15:00 AM 7.2158 6.6379
1/2/2022 3:30:00 AM 7.2133 6.6473
1/2/2022 3:45:00 AM 7.2129 6.6944
1/2/2022 4:00:00 AM 7.2092 6.76
1/2/2022 4:15:00 AM 7.2078 6.7687
1/2/2022 4:30:00 AM 7.2046 6.8507
1/2/2022 4:45:00 AM 7.2036 6.8583
1/2/2022 5:00:00 AM 7.2025 6.9485
1/2/2022 5:15:00 AM 7.1989 6.957
1/2/2022 5:30:00 AM 7.1978 6.9623
1/2/2022 5:45:00 AM 7.1932 6.9
1/2/2022 6:00:00 AM 7.192 6.9629
1/2/2022 6:15:00 AM 7.1891 6.9368
1/2/2022 6:30:00 AM 7.1853 6.9712
1/2/2022 6:45:00 AM 7.1842 7.0166
1/2/2022 7:00:00 AM 7.1803 7.0855
1/2/2022 7:15:00 AM 7.1786 7.1674
1/2/2022 7:30:00 AM 7.1772 7.183
1/2/2022 7:45:00 AM 7.175 7.2561
1/2/2022 8:00:00 AM 7.1746 7.3042
1/2/2022 8:15:00 AM 7.1723 7.3542
1/2/2022 8:30:00 AM 7.17 7.2828
1/2/2022 8:45:00 AM 7.1708 7.3
1/2/2022 9:00:00 AM 7.1683 7.2578
1/2/2022 9:15:00 AM 7.167 7.2547
1/2/2022 9:30:00 AM 7.165 7.2433
1/2/2022 9:45:00 AM 7.1655 7.4109
1/2/2022 10:00:00 AM 7.1683 7.5163
1/2/2022 10:15:00 AM 7.1694 7.4147
1/2/2022 10:30:00 AM 7.17 7.3456
1/2/2022 10:45:00 AM 7.1733 7.3397
1/2/2022 11:00:00 AM 7.1762 7.3454
1/2/2022 11:15:00 AM 7.1789 7.3402
1/2/2022 11:30:00 AM 7.1836 7.2484
1/2/2022 11:45:00 AM 7.1834 7.2
1/2/2022 12:00:00 PM 7.1909 7.383
1/2/2022 12:15:00 PM 7.1952 7.4324
1/2/2022 12:30:00 PM 7.1988 7.3437
1/2/2022 12:45:00 PM 7.2032 7.345
1/2/2022 1:00:00 PM 7.2088 7.237
1/2/2022 1:15:00 PM 7.2141 7.2561
1/2/2022 1:30:00 PM 7.2185 7.1449
1/2/2022 1:45:00 PM 7.2251 7.2225
1/2/2022 2:00:00 PM 7.2318 7.2572
1/2/2022 2:15:00 PM 7.2398 8.1282
1/2/2022 2:30:00 PM 7.2475 8.1437
1/2/2022 2:45:00 PM 7.2554 7.5703
1/2/2022 3:00:00 PM 7.2637 7.3789
1/2/2022 3:15:00 PM 7.2728 7.3217
1/2/2022 3:30:00 PM 7.2819 7.156
1/2/2022 3:45:00 PM 7.2907 7.0816
1/2/2022 4:00:00 PM 7.3171 7.1271
1/2/2022 4:15:00 PM 7.3702 7.3726
1/2/2022 4:30:00 PM 7.4327 7.0212
1/2/2022 4:45:00 PM 7.4957 6.8659
1/2/2022 5:00:00 PM 7.5523 7.2188
1/2/2022 5:15:00 PM 7.6227 7.9045
1/2/2022 5:30:00 PM 7.6924 7.2752
1/2/2022 5:45:00 PM 7.7252 7
1/2/2022 6:00:00 PM 7.7199 6.8514
1/2/2022 6:15:00 PM 7.7509 6.8441
1/2/2022 6:30:00 PM 7.8041 6.8453
1/2/2022 6:45:00 PM 7.8181 6.7802
1/2/2022 7:00:00 PM 7.8706 6.7452
1/2/2022 7:15:00 PM 7.8394 6.7545
1/2/2022 7:30:00 PM 7.8105 6.7616
1/2/2022 7:45:00 PM 7.7719 6.752
1/2/2022 8:00:00 PM 7.7506 6.7576
1/2/2022 8:15:00 PM 7.7329 6.7299
1/2/2022 8:30:00 PM 7.741 6.7604
1/2/2022 8:45:00 PM 7.7098 6.7
1/2/2022 9:00:00 PM 7.7003 6.6395
1/2/2022 9:15:00 PM 7.6789 6.7236
1/2/2022 9:30:00 PM 7.6635 6.6428
1/2/2022 9:45:00 PM 7.6892 6.6319
1/2/2022 10:00:00 PM 7.6847 6.6485
1/2/2022 10:15:00 PM 7.6559 6.6358
1/2/2022 10:30:00 PM 7.6354 6.6231
1/2/2022 10:45:00 PM 7.6213 6.6465
1/2/2022 11:00:00 PM 7.6271 6.6417
1/2/2022 11:15:00 PM 7.6414 6.654
1/2/2022 11:30:00 PM 7.6139 6.6259
1/2/2022 11:45:00 PM 7.5866 6.6
1/3/2022 12:00:00 AM 7.6313 6.5247
1/3/2022 12:15:00 AM 7.6729 6.6232
1/3/2022 12:30:00 AM 7.7023 6.573
1/3/2022 12:45:00 AM 7.6622 6.6292
1/3/2022 1:00:00 AM 7.6214 6.544
1/3/2022 1:15:00 AM 7.6098 6.5381
1/3/2022 1:30:00 AM 7.6143 6.4326
1/3/2022 1:45:00 AM 7.588 6.3644
1/3/2022 2:00:00 AM 7.5799 6.4552
1/3/2022 2:15:00 AM 7.5594 6.4507
1/3/2022 2:30:00 AM 7.5641 6.4573
1/3/2022 2:45:00 AM 7.567 6.4997
1/3/2022 3:00:00 AM 7.5847 6.404
1/3/2022 3:15:00 AM 7.5599 6.3337
1/3/2022 3:30:00 AM 7.5585 6.3459
1/3/2022 3:45:00 AM 7.5506 6.4
1/3/2022 4:00:00 AM 7.5377 6.4196
1/3/2022 4:15:00 AM 7.5432 6.4477
1/3/2022 4:30:00 AM 7.5185 6.452
1/3/2022 4:45:00 AM 7.5082 6.4818
1/3/2022 5:00:00 AM 7.5413 6.4626
1/3/2022 5:15:00 AM 7.5219 6.462
1/3/2022 5:30:00 AM 7.5289 6.4419
1/3/2022 5:45:00 AM 7.5488 6.4
1/3/2022 6:00:00 AM 7.505 6.4322
1/3/2022 6:15:00 AM 7.5098 6.4559
1/3/2022 6:30:00 AM 7.5086 6.4114
1/3/2022 6:45:00 AM 7.5035 6.462
1/3/2022 7:00:00 AM 7.4873 6.3869
1/3/2022 7:15:00 AM 7.4797 6.4721
1/3/2022 7:30:00 AM 7.457 6.5433
1/3/2022 7:45:00 AM 7.4536 6.5478
1/3/2022 8:00:00 AM 7.4479 6.4501
1/3/2022 8:15:00 AM 7.4443 6.4279
1/3/2022 8:30:00 AM 7.4617 6.4523
1/3/2022 8:45:00 AM 7.4648 6.5
1/3/2022 9:00:00 AM 7.4603 6.9445
1/3/2022 9:15:00 AM 7.4385 6.9637
1/3/2022 9:30:00 AM 7.4342 6.7066
1/3/2022 9:45:00 AM 7.4505 6.5737
1/3/2022 10:00:00 AM 7.4358 6.5229
1/3/2022 10:15:00 AM 7.4428 6.4216
1/3/2022 10:30:00 AM 7.4578 6.461
1/3/2022 10:45:00 AM 7.4364 6.398
1/3/2022 11:00:00 AM 7.4374 6.3929
1/3/2022 11:15:00 AM 7.4436 6.3566
1/3/2022 11:30:00 AM 7.4411 6.3481
1/3/2022 11:45:00 AM 7.4312 6.3999
1/3/2022 12:00:00 PM 7.45 6.4406
1/3/2022 12:15:00 PM 7.4698 6.4282
1/3/2022 12:30:00 PM 7.4947 6.45
1/3/2022 12:45:00 PM 7.5311 6.5061
1/3/2022 1:00:00 PM 7.5003 6.5538
1/3/2022 1:15:00 PM 7.506 6.4619
1/3/2022 1:30:00 PM 7.5579 6.4091
1/3/2022 1:45:00 PM 7.5728 6.3684
1/3/2022 2:00:00 PM 7.6641 6.354
1/3/2022 2:15:00 PM 7.6672 6.3438
1/3/2022 2:30:00 PM 7.6027 6.2667
1/3/2022 2:45:00 PM 7.6104 6.2314
1/3/2022 3:00:00 PM 7.6025 6.2317
1/3/2022 3:15:00 PM 7.6095 6.2759
1/3/2022 3:30:00 PM 7.6097 6.3274
1/3/2022 3:45:00 PM 7.6114 6.2451
1/3/2022 4:00:00 PM 7.6404 6.3483
1/3/2022 4:15:00 PM 7.6514 6.5455
1/3/2022 4:30:00 PM 7.6534 6.394
1/3/2022 4:45:00 PM 7.6683 6.3458
1/3/2022 5:00:00 PM 7.6954 6.3538
1/3/2022 5:15:00 PM 7.6956 6.3622
1/3/2022 5:30:00 PM 7.7185 6.3397
1/3/2022 5:45:00 PM 7.7252 6.4
1/3/2022 6:00:00 PM 7.6923 6.3499
1/3/2022 6:15:00 PM 7.6972 6.3459
1/3/2022 6:30:00 PM 7.7009 6.4236
1/3/2022 6:45:00 PM 7.704 6.4423
1/3/2022 7:00:00 PM 7.6972 6.4429
1/3/2022 7:15:00 PM 7.6949 6.3651
1/3/2022 7:30:00 PM 7.6985 6.3612
1/3/2022 7:45:00 PM 7.6967 6.4264
1/3/2022 8:00:00 PM 7.6999 6.4341
1/3/2022 8:15:00 PM 7.7031 6.4775
1/3/2022 8:30:00 PM 7.7077 6.389
1/3/2022 8:45:00 PM 7.6972 6.3
1/3/2022 9:00:00 PM 7.6934 6.3622
1/3/2022 9:15:00 PM 7.6914 6.3392
1/3/2022 9:30:00 PM 7.6725 6.3454
1/3/2022 9:45:00 PM 7.6802 6.341
1/3/2022 10:00:00 PM 7.6619 6.336
1/3/2022 10:15:00 PM 7.6515 6.3244
1/3/2022 10:30:00 PM 7.6406 6.3411
1/3/2022 10:45:00 PM 7.6427 6.3596
1/3/2022 11:00:00 PM 7.6347 6.3367
1/3/2022 11:15:00 PM 7.6235 6.3359
1/3/2022 11:30:00 PM 7.6206 6.3435
1/3/2022 11:45:00 PM 7.616 6.4
1/4/2022 12:00:00 AM 7.6367 6.3448
1/4/2022 12:15:00 AM 7.6292 6.3452
1/4/2022 12:30:00 AM 7.6126 6.2421
1/4/2022 12:45:00 AM 7.6203 6.2587
1/4/2022 1:00:00 AM 7.6243 6.2358
1/4/2022 1:15:00 AM 7.5882 6.2325
1/4/2022 1:30:00 AM 7.5756 6.2415
1/4/2022 1:45:00 AM 7.5681 6.3236
1/4/2022 2:00:00 AM 7.5533 6.3576
1/4/2022 2:15:00 AM 7.5429 6.3457
1/4/2022 2:30:00 AM 7.5327 6.2812
1/4/2022 2:45:00 AM 7.5306 6.3
1/4/2022 3:00:00 AM 7.5224 6.6313
1/4/2022 3:15:00 AM 7.5147 6.5707
1/4/2022 3:30:00 AM 7.5125 6.5117
1/4/2022 3:45:00 AM 7.511 6.4662
1/4/2022 4:00:00 AM 7.5067 6.6682
1/4/2022 4:15:00 AM 7.5051 6.9906
1/4/2022 4:30:00 AM 7.5045 6.904
1/4/2022 4:45:00 AM 7.5077 6.7544
1/4/2022 5:00:00 AM 7.4999 6.7114
1/4/2022 5:15:00 AM 7.494 6.6599
1/4/2022 5:30:00 AM 7.4909 7.179
1/4/2022 5:45:00 AM 7.49 7.1
1/4/2022 6:00:00 AM 7.4835 7.489
1/4/2022 6:15:00 AM 7.4815 7.6574
1/4/2022 6:30:00 AM 7.4756 7.6328
1/4/2022 6:45:00 AM 7.4714 7.7047
1/4/2022 7:00:00 AM 7.465 8.1995
1/4/2022 7:15:00 AM 7.4642 7.6998
1/4/2022 7:30:00 AM 7.4595 7.31
1/4/2022 7:45:00 AM 7.458 7.0687
1/4/2022 8:00:00 AM 7.4545 7.6184
1/4/2022 8:15:00 AM 7.4524 7.6204
1/4/2022 8:30:00 AM 7.4501 7.2766
1/4/2022 8:45:00 AM 7.4522 7.2
1/4/2022 9:00:00 AM 7.4437 7.2116
1/4/2022 9:15:00 AM 7.4407 7.1361
1/4/2022 9:30:00 AM 7.4397 7.0837
1/4/2022 9:45:00 AM 7.4394 7.0326
1/4/2022 10:00:00 AM 7.4399 7.0441
1/4/2022 10:15:00 AM 7.4354 7.0565
1/4/2022 10:30:00 AM 7.4324 6.9759
1/4/2022 10:45:00 AM 7.4311 6.9395
1/4/2022 11:00:00 AM 7.4287 6.9231
1/4/2022 11:15:00 AM 7.4274 6.9526
1/4/2022 11:30:00 AM 7.4263 6.8915
1/4/2022 11:45:00 AM 7.4284 6.9
1/4/2022 12:00:00 PM 7.4225 6.8518
1/4/2022 12:15:00 PM 7.4214 6.9361
1/4/2022 12:30:00 PM 7.4221 7.4091
1/4/2022 12:45:00 PM 7.4217 7.8002
1/4/2022 1:00:00 PM 7.4212 7.5055
1/4/2022 1:15:00 PM 7.426 7.5323
1/4/2022 1:30:00 PM 7.428 7.1933
1/4/2022 1:45:00 PM 7.4327 7.0875
1/4/2022 2:00:00 PM 7.4371 6.9536
1/4/2022 2:15:00 PM 7.4446 6.8866
1/4/2022 2:30:00 PM 7.4519 6.8783
1/4/2022 2:45:00 PM 7.4602 6.8573
1/4/2022 3:00:00 PM 7.4684 6.7969
1/4/2022 3:15:00 PM 7.4785 6.7767
1/4/2022 3:30:00 PM 7.4872 6.7721
1/4/2022 3:45:00 PM 7.4976 6.7663
1/4/2022 4:00:00 PM 7.5075 6.7743
1/4/2022 4:15:00 PM 7.5173 8.8963
1/4/2022 4:30:00 PM 7.5253 7.4989
1/4/2022 4:45:00 PM 7.5354 7.2414
1/4/2022 5:00:00 PM 7.5468 7.0075
1/4/2022 5:15:00 PM 7.5565 6.9727
1/4/2022 5:30:00 PM 7.5653 6.9603
1/4/2022 5:45:00 PM 7.5684 7
1/4/2022 6:00:00 PM 7.5805 6.8696
1/4/2022 6:15:00 PM 7.586 6.87
1/4/2022 6:30:00 PM 7.6188 6.8272
1/4/2022 6:45:00 PM 7.6844 6.7471
1/4/2022 7:00:00 PM 7.7156 6.7081
1/4/2022 7:15:00 PM 7.727 6.749
1/4/2022 7:30:00 PM 7.7301 6.7569
1/4/2022 7:45:00 PM 7.7298 6.9671
1/4/2022 8:00:00 PM 7.7263 8.3202
1/4/2022 8:15:00 PM 7.7221 7.4034
1/4/2022 8:30:00 PM 7.7169 7.2651
1/4/2022 8:45:00 PM 7.7154 7.0001
1/4/2022 9:00:00 PM 7.707 6.9407
1/4/2022 9:15:00 PM 7.7004 6.9406
1/4/2022 9:30:00 PM 7.6933 6.8412
1/4/2022 9:45:00 PM 7.6852 6.8421
1/4/2022 10:00:00 PM 7.6777 6.8541
1/4/2022 10:15:00 PM 7.668 6.8415
1/4/2022 10:30:00 PM 7.6547 7.0065
1/4/2022 10:45:00 PM 7.6531 6.9501
1/4/2022 11:00:00 PM 7.6468 6.9392
1/4/2022 11:15:00 PM 7.6403 6.9589
1/4/2022 11:30:00 PM 7.6314 6.9114
1/4/2022 11:45:00 PM 7.63 6.9
1/5/2022 12:00:00 AM 7.618 6.8615
1/5/2022 12:15:00 AM 7.6125 6.8807
1/5/2022 12:30:00 AM 7.6069 6.8875
1/5/2022 12:45:00 AM 7.6007 6.9392
1/5/2022 1:00:00 AM 7.5968 7.2012
1/5/2022 1:15:00 AM 7.5908 7.0162
1/5/2022 1:30:00 AM 7.5859 6.947
1/5/2022 1:45:00 AM 7.5821 6.9363
1/5/2022 2:00:00 AM 7.5783 6.9966
1/5/2022 2:15:00 AM 7.5748 7.2645
1/5/2022 2:30:00 AM 7.5706 8.0665
1/5/2022 2:45:00 AM 7.5726 7.7
1/5/2022 3:00:00 AM 7.5631 7.606
1/5/2022 3:15:00 AM 7.5609 7.4439
1/5/2022 3:30:00 AM 7.5573 7.19
1/5/2022 3:45:00 AM 7.5557 7.0562
1/5/2022 4:00:00 AM 7.5551 7.0852
1/5/2022 4:15:00 AM 7.5514 7.1216
1/5/2022 4:30:00 AM 7.5509 7.0611
1/5/2022 4:45:00 AM 7.549 6.9668
1/5/2022 5:00:00 AM 7.5466 7.2847
1/5/2022 5:15:00 AM 7.5465 8.6654
1/5/2022 5:30:00 AM 7.5419 7.8058
1/5/2022 5:45:00 AM 7.5418 7.5
1/5/2022 6:00:00 AM 7.5412 8.5161
1/5/2022 6:15:00 AM 7.5406 8.0842
1/5/2022 6:30:00 AM 7.5369 8.1727
1/5/2022 6:45:00 AM 7.5329 7.5134
1/5/2022 7:00:00 AM 7.5321 7.2364
1/5/2022 7:15:00 AM 7.5281 7.1342
1/5/2022 7:30:00 AM